UAL19 KMCO-LIMC

Flight info

Callsign UAL19
Flight time 9h 7m
Altitude 37000
Route MZULO3 LENDS COACH EAAGL HAAYY AZEZU KN57E LACKS JOBOC 4160N 4250N 4340N 4330N 4320N MUDOS VES TURPU LATEK GONUP TOU GAI DEGOL FJR ROVOT PADKO STP RAPED PIGOS EKSID NOSTA NOPMU ANAKI P860 DEVOX
Aircraft B772/H-SDE2E3FGHIJ5LORVWXY/LB1D1

Departure

Time 2026-04-25 12:19
Airport Orlando International Airport (KMCO)

Arrival

Time 2026-04-25 21:26
Airport Milan Malpensa International Airport (LIMC)
Time Latitude Longitude Altitude Speed Heading
2026-04-25 10:46 28.42535 -81.29985 99 ft 0 kts 314°
2026-04-25 10:57 28.42665 -81.30034 99 ft 0 kts 232°
2026-04-25 11:11 28.42671 -81.30366 99 ft 0 kts 61°
2026-04-25 11:59 28.42664 -81.30380 99 ft 4 kts 61°
2026-04-25 11:59 28.42651 -81.30406 99 ft 4 kts 61°
2026-04-25 11:59 28.42641 -81.30428 99 ft 4 kts 77°
2026-04-25 12:00 28.42663 -81.30466 99 ft 4 kts 166°
2026-04-25 12:00 28.42679 -81.30470 98 ft 0 kts 166°
2026-04-25 12:05 28.42662 -81.30464 100 ft 5 kts 160°
2026-04-25 12:05 28.42632 -81.30447 101 ft 5 kts 149°
2026-04-25 12:05 28.42605 -81.30424 100 ft 5 kts 142°
2026-04-25 12:05 28.42575 -81.30409 99 ft 5 kts 166°
2026-04-25 12:06 28.42542 -81.30408 101 ft 5 kts 180°
2026-04-25 12:06 28.42508 -81.30407 103 ft 5 kts 177°
2026-04-25 12:06 28.42465 -81.30404 100 ft 7 kts 178°
2026-04-25 12:06 28.42435 -81.30403 101 ft 1 kts 178°
2026-04-25 12:07 28.42431 -81.30403 101 ft 0 kts 178°
2026-04-25 12:08 28.42411 -81.30402 100 ft 6 kts 177°
2026-04-25 12:09 28.42373 -81.30382 99 ft 10 kts 133°
2026-04-25 12:09 28.42359 -81.30302 102 ft 10 kts 89°
2026-04-25 12:09 28.42361 -81.30220 99 ft 10 kts 89°
2026-04-25 12:09 28.42363 -81.30138 99 ft 10 kts 89°
2026-04-25 12:10 28.42364 -81.30056 99 ft 10 kts 89°
2026-04-25 12:10 28.42365 -81.29974 99 ft 10 kts 91°
2026-04-25 12:10 28.42365 -81.29893 99 ft 10 kts 89°
2026-04-25 12:10 28.42377 -81.29817 101 ft 10 kts 52°
2026-04-25 12:11 28.42442 -81.29796 100 ft 10 kts
2026-04-25 12:11 28.42512 -81.29794 101 ft 10 kts
2026-04-25 12:11 28.42582 -81.29795 100 ft 10 kts 358°
2026-04-25 12:11 28.42652 -81.29797 99 ft 10 kts 358°
2026-04-25 12:12 28.42722 -81.29799 101 ft 10 kts 359°
2026-04-25 12:12 28.42768 -81.29800 101 ft 10 kts 359°
2026-04-25 12:12 28.42839 -81.29801 102 ft 10 kts 359°
2026-04-25 12:12 28.42909 -81.29802 100 ft 10 kts
2026-04-25 12:13 28.42983 -81.29801 101 ft 12 kts
2026-04-25 12:13 28.43089 -81.29802 100 ft 11 kts 359°
2026-04-25 12:13 28.43167 -81.29803 102 ft 11 kts 359°
2026-04-25 12:13 28.43219 -81.29804 100 ft 11 kts 359°
2026-04-25 12:14 28.43311 -81.29805 101 ft 14 kts 360°
2026-04-25 12:14 28.43411 -81.29805 100 ft 14 kts 360°
2026-04-25 12:14 28.43496 -81.29806 100 ft 9 kts 360°
2026-04-25 12:14 28.43543 -81.29763 102 ft 9 kts 72°
2026-04-25 12:15 28.43549 -81.29716 102 ft 0 kts 87°
2026-04-25 12:15 28.43550 -81.29678 102 ft 9 kts 88°
2026-04-25 12:15 28.43547 -81.29626 103 ft 6 kts 105°
2026-04-25 12:16 28.43517 -81.29594 102 ft 6 kts 159°
2026-04-25 12:16 28.43500 -81.29592 103 ft 0 kts 178°
2026-04-25 12:18 28.43416 -81.29588 103 ft 30 kts 178°
2026-04-25 12:18 28.42994 -81.29583 103 ft 94 kts 180°
2026-04-25 12:18 28.42122 -81.29572 100 ft 155 kts 179°
2026-04-25 12:18 28.40934 -81.29555 428 ft 176 kts 178°
2026-04-25 12:19 28.38936 -81.29452 1804 ft 174 kts 181°
2026-04-25 12:19 28.37354 -81.28843 1985 ft 197 kts 140°
2026-04-25 12:19 28.36229 -81.27835 2139 ft 217 kts 147°
2026-04-25 12:20 28.34923 -81.26847 2412 ft 232 kts 147°
2026-04-25 12:20 28.33695 -81.25614 2763 ft 241 kts 124°
2026-04-25 12:20 28.33215 -81.23794 3292 ft 246 kts 88°
2026-04-25 12:20 28.33652 -81.21922 3773 ft 250 kts 68°
2026-04-25 12:21 28.34329 -81.20032 4132 ft 263 kts 68°
2026-04-25 12:21 28.35026 -81.18080 4729 ft 270 kts 68°
2026-04-25 12:21 28.35728 -81.16123 5390 ft 272 kts 67°
2026-04-25 12:21 28.36446 -81.14123 6105 ft 273 kts 67°
2026-04-25 12:22 28.37166 -81.12114 6776 ft 276 kts 67°
2026-04-25 12:22 28.37896 -81.10077 7363 ft 281 kts 67°
2026-04-25 12:22 28.38639 -81.07997 7995 ft 285 kts 67°
2026-04-25 12:22 28.39388 -81.05897 8638 ft 289 kts 66°
2026-04-25 12:23 28.40146 -81.03771 9270 ft 293 kts 66°
2026-04-25 12:23 28.40907 -81.01635 9905 ft 297 kts 66°
2026-04-25 12:23 28.41688 -80.99432 10358 ft 308 kts 66°
2026-04-25 12:23 28.42522 -80.97084 10504 ft 330 kts 66°
2026-04-25 12:24 28.43411 -80.94577 10707 ft 352 kts 66°
2026-04-25 12:24 28.44343 -80.91943 11168 ft 364 kts 66°
2026-04-25 12:24 28.45297 -80.89245 11824 ft 372 kts 66°
2026-04-25 12:24 28.46267 -80.86502 12678 ft 375 kts 66°
2026-04-25 12:25 28.47203 -80.83731 13560 ft 377 kts 70°
2026-04-25 12:25 28.47880 -80.80828 14289 ft 383 kts 78°
2026-04-25 12:25 28.48262 -80.77805 14953 ft 389 kts 82°
2026-04-25 12:25 28.48587 -80.74734 15609 ft 395 kts 82°
2026-04-25 12:26 28.48912 -80.71650 16283 ft 399 kts 82°
2026-04-25 12:26 28.49248 -80.68499 16968 ft 404 kts 81°
2026-04-25 12:26 28.49592 -80.65312 17603 ft 409 kts 81°
2026-04-25 12:26 28.49945 -80.62086 18236 ft 414 kts 81°
2026-04-25 12:27 28.50304 -80.58824 18799 ft 418 kts 81°
2026-04-25 12:27 28.50666 -80.55530 19378 ft 422 kts 81°
2026-04-25 12:27 28.51032 -80.52206 19976 ft 425 kts 81°
2026-04-25 12:27 28.51401 -80.48847 20513 ft 430 kts 81°
2026-04-25 12:28 28.51772 -80.45459 21070 ft 434 kts 81°
2026-04-25 12:28 28.52146 -80.42037 21655 ft 437 kts 81°
2026-04-25 12:28 28.52522 -80.38588 22238 ft 441 kts 81°
2026-04-25 12:28 28.52901 -80.35106 22818 ft 444 kts 81°
2026-04-25 12:29 28.53326 -80.31615 23394 ft 447 kts 77°
2026-04-25 12:29 28.54056 -80.28168 23905 ft 449 kts 71°
2026-04-25 12:29 28.55098 -80.24822 24427 ft 449 kts 64°
2026-04-25 12:29 28.56349 -80.21568 24953 ft 450 kts 64°
2026-04-25 12:30 28.57616 -80.18305 25461 ft 452 kts 64°
2026-04-25 12:30 28.58871 -80.15064 25947 ft 455 kts 64°
2026-04-25 12:30 28.60141 -80.11758 26471 ft 456 kts 64°
2026-04-25 12:30 28.61405 -80.08446 26990 ft 457 kts 64°
2026-04-25 12:31 28.62668 -80.05123 27476 ft 459 kts 64°
2026-04-25 12:31 28.63936 -80.01772 27884 ft 462 kts 65°
2026-04-25 12:31 28.65206 -79.98401 28285 ft 465 kts 65°
2026-04-25 12:31 28.66484 -79.95007 28680 ft 467 kts 65°
2026-04-25 12:32 28.67766 -79.91598 29080 ft 470 kts 65°
2026-04-25 12:32 28.69056 -79.88169 29470 ft 472 kts 65°
2026-04-25 12:32 28.70349 -79.84729 29843 ft 474 kts 65°
2026-04-25 12:32 28.71648 -79.81269 30182 ft 476 kts 65°
2026-04-25 12:33 28.72955 -79.77787 30467 ft 479 kts 65°
2026-04-25 12:33 28.74268 -79.74286 30748 ft 481 kts 65°
2026-04-25 12:33 28.75584 -79.70774 30994 ft 483 kts 65°
2026-04-25 12:33 28.76905 -79.67243 31245 ft 485 kts 65°
2026-04-25 12:34 28.78232 -79.63694 31477 ft 487 kts 65°
2026-04-25 12:34 28.79565 -79.60129 31709 ft 489 kts 65°
2026-04-25 12:34 28.81009 -79.56612 31924 ft 490 kts 60°
2026-04-25 12:34 28.82118 -79.54370 32082 ft 490 kts 56°
2026-04-25 12:35 28.84691 -79.50162 32490 ft 487 kts 52°
2026-04-25 12:35 28.86690 -79.47049 32892 ft 484 kts 52°
2026-04-25 12:35 28.88674 -79.43951 33249 ft 483 kts 52°
2026-04-25 12:35 28.90649 -79.40848 33548 ft 484 kts 52°
2026-04-25 12:36 28.92619 -79.37733 33797 ft 485 kts 52°
2026-04-25 12:36 28.94582 -79.34610 34077 ft 484 kts 52°
2026-04-25 12:36 28.96542 -79.31482 34358 ft 483 kts 52°
2026-04-25 12:36 28.98495 -79.28361 34648 ft 482 kts 52°
2026-04-25 12:37 29.00440 -79.25247 34912 ft 481 kts 52°
2026-04-25 12:37 29.02386 -79.22133 35160 ft 481 kts 52°
2026-04-25 12:37 29.04326 -79.19024 35421 ft 480 kts 52°
2026-04-25 12:37 29.06269 -79.15910 35675 ft 480 kts 52°
2026-04-25 12:38 29.08204 -79.12808 35925 ft 479 kts 52°
2026-04-25 12:38 29.10115 -79.09741 36175 ft 478 kts 52°
2026-04-25 12:38 29.12037 -79.06654 36510 ft 475 kts 52°
2026-04-25 12:38 29.13950 -79.03580 36774 ft 474 kts 52°
2026-04-25 12:39 29.15867 -79.00498 36880 ft 477 kts 52°
2026-04-25 12:39 29.19723 -78.94290 36980 ft 478 kts 52°
2026-04-25 12:40 29.23570 -78.88085 36987 ft 477 kts 52°
2026-04-25 12:40 29.27402 -78.81896 36991 ft 476 kts 52°
2026-04-25 12:41 29.31228 -78.75708 36990 ft 475 kts 52°
2026-04-25 12:41 29.35175 -78.69678 36989 ft 469 kts 42°
2026-04-25 12:41 29.37655 -78.67290 37003 ft 464 kts 31°
2026-04-25 12:42 29.40442 -78.65445 36992 ft 461 kts 22°
2026-04-25 12:42 29.46417 -78.63068 36994 ft 458 kts 15°
2026-04-25 12:43 29.52510 -78.60795 36996 ft 461 kts 16°
2026-04-25 12:43 29.61687 -78.57279 36996 ft 465 kts 16°
2026-04-25 12:44 29.67827 -78.54891 36992 ft 466 kts 17°
2026-04-25 12:45 29.77049 -78.51294 36989 ft 466 kts 17°
2026-04-25 12:45 29.86262 -78.47697 36988 ft 465 kts 17°
2026-04-25 12:46 29.92366 -78.45310 36995 ft 465 kts 17°
2026-04-25 12:46 29.98484 -78.42916 36988 ft 464 kts 17°
2026-04-25 12:47 30.04588 -78.40523 36985 ft 463 kts 17°
2026-04-25 12:47 30.10684 -78.38130 36988 ft 462 kts 17°
2026-04-25 12:48 30.16781 -78.35734 36983 ft 462 kts 17°
2026-04-25 12:48 30.22821 -78.33357 36983 ft 461 kts 17°
2026-04-25 12:49 30.28900 -78.30962 36986 ft 461 kts 17°
2026-04-25 12:49 30.34985 -78.28562 36987 ft 461 kts 17°
2026-04-25 12:50 30.41056 -78.26163 36986 ft 461 kts 17°
2026-04-25 12:50 30.47132 -78.23760 36985 ft 462 kts 17°
2026-04-25 12:51 30.53174 -78.21366 36985 ft 462 kts 17°
2026-04-25 12:51 30.59258 -78.18953 36983 ft 462 kts 17°
2026-04-25 12:52 30.65348 -78.16535 36981 ft 462 kts 17°
2026-04-25 12:52 30.71442 -78.14111 36991 ft 463 kts 17°
2026-04-25 12:53 30.77550 -78.11678 36981 ft 463 kts 17°
2026-04-25 12:53 30.83652 -78.09245 36984 ft 463 kts 17°
2026-04-25 12:54 30.89709 -78.06826 36981 ft 463 kts 17°
2026-04-25 12:54 30.95808 -78.04387 36980 ft 463 kts 17°
2026-04-25 12:55 30.99890 -78.02753 36982 ft 464 kts 17°
2026-04-25 12:55 31.07982 -77.99372 36977 ft 465 kts 22°
2026-04-25 12:56 31.13651 -77.95714 36984 ft 466 kts 30°
2026-04-25 12:56 31.19159 -77.91680 36975 ft 468 kts 30°
2026-04-25 12:57 31.24654 -77.87678 36988 ft 469 kts 30°
2026-04-25 12:57 31.30204 -77.83652 36983 ft 470 kts 30°
2026-04-25 12:58 31.35770 -77.79622 36981 ft 471 kts 30°
2026-04-25 12:58 31.41344 -77.75584 36979 ft 471 kts 30°
2026-04-25 12:59 31.46917 -77.71541 36978 ft 471 kts 30°
2026-04-25 12:59 31.52491 -77.67493 36980 ft 471 kts 30°
2026-04-25 13:00 31.56214 -77.64785 36979 ft 471 kts 30°
2026-04-25 13:00 31.63616 -77.59388 36981 ft 470 kts 31°
2026-04-25 13:01 31.69171 -77.55338 36971 ft 470 kts 31°
2026-04-25 13:01 31.74721 -77.51280 36986 ft 470 kts 31°
2026-04-25 13:02 31.79338 -77.47899 36978 ft 470 kts 31°
2026-04-25 13:02 31.84884 -77.43834 36976 ft 469 kts 31°
2026-04-25 13:03 31.90428 -77.39765 36977 ft 469 kts 31°
2026-04-25 13:03 31.95964 -77.35696 36978 ft 469 kts 31°
2026-04-25 13:04 32.01497 -77.31626 36986 ft 468 kts 31°
2026-04-25 13:04 32.07016 -77.27560 36969 ft 467 kts 31°
2026-04-25 13:05 32.12486 -77.23518 36973 ft 466 kts 31°
2026-04-25 13:05 32.17989 -77.19452 36967 ft 466 kts 31°
2026-04-25 13:06 32.23486 -77.15391 36971 ft 466 kts 31°
2026-04-25 13:06 32.29017 -77.11383 36973 ft 466 kts 30°
2026-04-25 13:07 32.34553 -77.07385 36973 ft 466 kts 30°
2026-04-25 13:07 32.40087 -77.03370 36966 ft 466 kts 31°
2026-04-25 13:08 32.45607 -76.99353 36973 ft 466 kts 31°
2026-04-25 13:08 32.51122 -76.95333 36982 ft 465 kts 31°
2026-04-25 13:09 32.56642 -76.91304 36968 ft 465 kts 31°
2026-04-25 13:09 32.62138 -76.87288 36972 ft 464 kts 31°
2026-04-25 13:10 32.67603 -76.83289 36958 ft 464 kts 31°
2026-04-25 13:10 32.73100 -76.79260 36974 ft 464 kts 31°
2026-04-25 13:11 32.78603 -76.75220 36968 ft 465 kts 31°
2026-04-25 13:11 32.84115 -76.71167 36968 ft 466 kts 31°
2026-04-25 13:12 32.89629 -76.67107 36965 ft 466 kts 31°
2026-04-25 13:12 32.94214 -76.63727 36970 ft 467 kts 31°
2026-04-25 13:13 33.00664 -76.58967 36967 ft 466 kts 31°
2026-04-25 13:13 33.06179 -76.54891 36963 ft 465 kts 31°
2026-04-25 13:14 33.11635 -76.50849 36968 ft 464 kts 31°
2026-04-25 13:14 33.17120 -76.46778 36963 ft 464 kts 31°
2026-04-25 13:15 33.22601 -76.42706 36972 ft 464 kts 31°
2026-04-25 13:15 33.28073 -76.38636 36962 ft 463 kts 31°
2026-04-25 13:16 33.33537 -76.34563 36961 ft 463 kts 31°
2026-04-25 13:16 33.38994 -76.30491 36967 ft 462 kts 31°
2026-04-25 13:17 33.44448 -76.26415 36961 ft 462 kts 31°
2026-04-25 13:17 33.49899 -76.22335 36962 ft 462 kts 31°
2026-04-25 13:18 33.55346 -76.18253 36956 ft 461 kts 31°
2026-04-25 13:18 33.60784 -76.14170 36966 ft 461 kts 31°
2026-04-25 13:19 33.66229 -76.10076 36956 ft 461 kts 31°
2026-04-25 13:19 33.70753 -76.06671 36960 ft 462 kts 31°
2026-04-25 13:20 33.77086 -76.01902 36950 ft 462 kts 31°
2026-04-25 13:20 33.82532 -75.97786 36949 ft 462 kts 31°
2026-04-25 13:21 33.87977 -75.93665 36958 ft 463 kts 31°
2026-04-25 13:21 33.93429 -75.89533 36952 ft 463 kts 30°
2026-04-25 13:22 33.98891 -75.85389 36950 ft 463 kts 30°
2026-04-25 13:23 34.07070 -75.79171 36945 ft 463 kts 30°
2026-04-25 13:23 34.12525 -75.75017 36944 ft 463 kts 30°
2026-04-25 13:24 34.17979 -75.70856 36952 ft 463 kts 30°
2026-04-25 13:24 34.23397 -75.66717 36939 ft 463 kts 30°
2026-04-25 13:25 34.28848 -75.62545 36941 ft 463 kts 30°
2026-04-25 13:25 34.34287 -75.58377 36941 ft 463 kts 30°
2026-04-25 13:26 34.39728 -75.54201 36941 ft 463 kts 30°
2026-04-25 13:26 34.45170 -75.50017 36937 ft 463 kts 30°
2026-04-25 13:27 34.50609 -75.45829 36934 ft 463 kts 30°
2026-04-25 13:27 34.56048 -75.41635 36940 ft 463 kts 30°
2026-04-25 13:28 34.61479 -75.37439 36940 ft 463 kts 30°
2026-04-25 13:28 34.66912 -75.33235 36928 ft 463 kts 30°
2026-04-25 13:29 34.72345 -75.29027 36928 ft 463 kts 30°
2026-04-25 13:29 34.77780 -75.24809 36926 ft 463 kts 30°
2026-04-25 13:30 34.85929 -75.18472 36928 ft 464 kts 30°
2026-04-25 13:31 34.94057 -75.12136 36926 ft 464 kts 30°
2026-04-25 13:31 34.99506 -75.07880 36924 ft 465 kts 30°
2026-04-25 13:32 35.04949 -75.03622 36933 ft 465 kts 30°
2026-04-25 13:32 35.10392 -74.99356 36912 ft 464 kts 30°
2026-04-25 13:33 35.15827 -74.95091 36923 ft 464 kts 30°
2026-04-25 13:33 35.21254 -74.90823 36928 ft 463 kts 30°
2026-04-25 13:34 35.26640 -74.86583 36928 ft 463 kts 30°
2026-04-25 13:34 35.32019 -74.82243 36916 ft 464 kts 32°
2026-04-25 13:35 35.37203 -74.77514 36922 ft 464 kts 33°
2026-04-25 13:35 35.42346 -74.72739 36919 ft 464 kts 33°
2026-04-25 13:36 35.47505 -74.67961 36919 ft 464 kts 33°
2026-04-25 13:36 35.52664 -74.63196 36931 ft 464 kts 33°
2026-04-25 13:37 35.57791 -74.58461 36924 ft 464 kts 33°
2026-04-25 13:37 35.62959 -74.53682 36926 ft 464 kts 33°
2026-04-25 13:38 35.68122 -74.48898 36925 ft 465 kts 33°
2026-04-25 13:38 35.73282 -74.44108 36927 ft 465 kts 33°
2026-04-25 13:39 35.78449 -74.39303 36924 ft 465 kts 33°
2026-04-25 13:39 35.83618 -74.34489 36926 ft 466 kts 33°
2026-04-25 13:40 35.88792 -74.29662 36924 ft 466 kts 33°
2026-04-25 13:40 35.93961 -74.24831 36917 ft 466 kts 33°
2026-04-25 13:41 35.99136 -74.19987 36921 ft 466 kts 33°
2026-04-25 13:41 36.04273 -74.15170 36922 ft 467 kts 33°
2026-04-25 13:42 36.09446 -74.10311 36921 ft 467 kts 33°
2026-04-25 13:42 36.14618 -74.05445 36930 ft 467 kts 33°
2026-04-25 13:43 36.19795 -74.00566 36934 ft 468 kts 32°
2026-04-25 13:43 36.24968 -73.95682 36933 ft 468 kts 32°
2026-04-25 13:44 36.30149 -73.90783 36942 ft 468 kts 32°
2026-04-25 13:44 36.35326 -73.85878 36942 ft 468 kts 32°
2026-04-25 13:45 36.40502 -73.80967 36947 ft 468 kts 32°
2026-04-25 13:45 36.45675 -73.76050 36953 ft 468 kts 32°
2026-04-25 13:46 36.49977 -73.71954 36951 ft 468 kts 32°
2026-04-25 13:46 36.55148 -73.67023 36955 ft 468 kts 32°
2026-04-25 13:47 36.60315 -73.62086 36955 ft 468 kts 32°
2026-04-25 13:47 36.65479 -73.57146 36961 ft 468 kts 32°
2026-04-25 13:48 36.70643 -73.52196 36957 ft 468 kts 32°
2026-04-25 13:48 36.75795 -73.47248 36969 ft 467 kts 32°
2026-04-25 13:49 36.80941 -73.42299 36981 ft 467 kts 32°
2026-04-25 13:49 36.86086 -73.37341 36973 ft 467 kts 32°
2026-04-25 13:50 36.91208 -73.32398 36982 ft 467 kts 32°
2026-04-25 13:50 36.96349 -73.27426 36989 ft 467 kts 32°
2026-04-25 13:51 37.01492 -73.22445 37004 ft 467 kts 32°
2026-04-25 13:51 37.06628 -73.17462 36987 ft 467 kts 32°
2026-04-25 13:52 37.11756 -73.12476 36997 ft 466 kts 32°
2026-04-25 13:52 37.16884 -73.07483 36995 ft 466 kts 32°
2026-04-25 13:53 37.22001 -73.02491 37005 ft 466 kts 32°
2026-04-25 13:53 37.27089 -72.97520 37009 ft 466 kts 32°
2026-04-25 13:54 37.32203 -72.92513 37015 ft 466 kts 32°
2026-04-25 13:54 37.37310 -72.87504 37004 ft 465 kts 32°
2026-04-25 13:55 37.42415 -72.82489 37017 ft 466 kts 32°
2026-04-25 13:55 37.47521 -72.77464 37016 ft 465 kts 32°
2026-04-25 13:56 37.52622 -72.72435 37025 ft 465 kts 32°
2026-04-25 13:56 37.57724 -72.67396 37021 ft 465 kts 32°
2026-04-25 13:57 37.62817 -72.62356 37038 ft 465 kts 31°
2026-04-25 13:57 37.67915 -72.57303 37041 ft 465 kts 31°
2026-04-25 13:58 37.72999 -72.52253 37039 ft 465 kts 31°
2026-04-25 13:58 37.78076 -72.47202 37040 ft 464 kts 31°
2026-04-25 13:59 37.83146 -72.42149 37045 ft 464 kts 31°
2026-04-25 13:59 37.88101 -72.36955 37044 ft 469 kts 37°
2026-04-25 14:00 37.92536 -72.30815 37055 ft 474 kts 41°
2026-04-25 14:00 37.96931 -72.24508 37076 ft 481 kts 41°
2026-04-25 14:01 38.01396 -72.18128 37062 ft 485 kts 41°
2026-04-25 14:01 38.05891 -72.11731 37058 ft 485 kts 41°
2026-04-25 14:02 38.10384 -72.05336 37065 ft 485 kts 41°
2026-04-25 14:02 38.14879 -71.98931 37064 ft 485 kts 41°
2026-04-25 14:03 38.19366 -71.92523 37069 ft 485 kts 41°
2026-04-25 14:03 38.23855 -71.86098 37079 ft 485 kts 41°
2026-04-25 14:04 38.28300 -71.79722 37074 ft 484 kts 41°
2026-04-25 14:04 38.32766 -71.73304 37077 ft 483 kts 41°
2026-04-25 14:05 38.37220 -71.66891 37094 ft 483 kts 41°
2026-04-25 14:05 38.41678 -71.60459 37091 ft 484 kts 41°
2026-04-25 14:06 38.46135 -71.54016 37117 ft 484 kts 41°
2026-04-25 14:06 38.50599 -71.47549 37096 ft 485 kts 41°
2026-04-25 14:07 38.55051 -71.41086 37110 ft 485 kts 41°
2026-04-25 14:07 38.59502 -71.34611 37100 ft 485 kts 41°
2026-04-25 14:08 38.63951 -71.28126 37095 ft 485 kts 41°
2026-04-25 14:08 38.68397 -71.21632 37102 ft 485 kts 41°
2026-04-25 14:09 38.72844 -71.15124 37112 ft 486 kts 41°
2026-04-25 14:09 38.77262 -71.08645 37113 ft 486 kts 41°
2026-04-25 14:10 38.81703 -71.02118 37108 ft 486 kts 41°
2026-04-25 14:10 38.86149 -70.95571 37117 ft 486 kts 41°
2026-04-25 14:11 38.90590 -70.89017 37127 ft 486 kts 41°
2026-04-25 14:11 38.95029 -70.82453 37121 ft 487 kts 40°
2026-04-25 14:12 38.99464 -70.75881 37119 ft 486 kts 40°
2026-04-25 14:12 39.03894 -70.69301 37118 ft 486 kts 40°
2026-04-25 14:13 39.08318 -70.62718 37114 ft 486 kts 40°
2026-04-25 14:13 39.12735 -70.56132 37121 ft 486 kts 41°
2026-04-25 14:14 39.17150 -70.49534 37124 ft 486 kts 40°
2026-04-25 14:14 39.21536 -70.42966 37122 ft 486 kts 40°
2026-04-25 14:15 39.25959 -70.36329 37131 ft 487 kts 40°
2026-04-25 14:15 39.30371 -70.29694 37128 ft 487 kts 40°
2026-04-25 14:16 39.34773 -70.23060 37125 ft 486 kts 40°
2026-04-25 14:16 39.39176 -70.16411 37132 ft 487 kts 40°
2026-04-25 14:17 39.43583 -70.09742 37121 ft 489 kts 40°
2026-04-25 14:17 39.47905 -70.02998 37120 ft 495 kts 45°
2026-04-25 14:18 39.51424 -69.95172 37130 ft 511 kts 57°
2026-04-25 14:18 39.53999 -69.86492 37129 ft 518 kts 62°
2026-04-25 14:19 39.56431 -69.77675 37145 ft 520 kts 62°
2026-04-25 14:19 39.58896 -69.68847 37130 ft 520 kts 61°
2026-04-25 14:20 39.61387 -69.60035 37125 ft 520 kts 61°
2026-04-25 14:20 39.63882 -69.51221 37164 ft 520 kts 61°
2026-04-25 14:21 39.66375 -69.42382 37133 ft 521 kts 61°
2026-04-25 14:21 39.68858 -69.33536 37149 ft 521 kts 61°
2026-04-25 14:22 39.71320 -69.24733 37125 ft 521 kts 61°
2026-04-25 14:22 39.73784 -69.15890 37139 ft 521 kts 61°
2026-04-25 14:23 39.76245 -69.07035 37130 ft 522 kts 61°
2026-04-25 14:23 39.77479 -69.02589 37258 ft 523 kts 61°
2026-04-25 14:23 39.78707 -68.98146 37464 ft 522 kts 61°
2026-04-25 14:23 39.79933 -68.93703 37642 ft 522 kts 61°
2026-04-25 14:24 39.81158 -68.89257 37817 ft 522 kts 61°
2026-04-25 14:24 39.82384 -68.84802 38043 ft 521 kts 62°
2026-04-25 14:24 39.83604 -68.80360 38116 ft 522 kts 62°
2026-04-25 14:25 39.86036 -68.71490 38119 ft 524 kts 62°
2026-04-25 14:25 39.88475 -68.62553 38115 ft 524 kts 62°
2026-04-25 14:26 39.90905 -68.53618 38116 ft 523 kts 62°
2026-04-25 14:26 39.93331 -68.44669 38147 ft 524 kts 62°
2026-04-25 14:27 39.95749 -68.35716 38110 ft 523 kts 62°
2026-04-25 14:27 39.98156 -68.26777 38107 ft 521 kts 62°
2026-04-25 14:28 40.00264 -68.17697 38133 ft 529 kts 71°
2026-04-25 14:28 40.01319 -68.08117 38113 ft 535 kts 76°
2026-04-25 14:29 40.02057 -68.00112 38109 ft 535 kts 76°
2026-04-25 14:29 40.02979 -67.90483 38101 ft 534 kts 75°
2026-04-25 14:30 40.03935 -67.80870 38102 ft 534 kts 75°
2026-04-25 14:30 40.05364 -67.66488 38103 ft 531 kts 75°
2026-04-25 14:31 40.06300 -67.56933 38101 ft 530 kts 75°
2026-04-25 14:31 40.07226 -67.47381 38096 ft 530 kts 76°
2026-04-25 14:32 40.08145 -67.37821 38093 ft 530 kts 76°
2026-04-25 14:32 40.09049 -67.28325 38098 ft 530 kts 76°
2026-04-25 14:33 40.09953 -67.18755 38136 ft 531 kts 76°
2026-04-25 14:33 40.10851 -67.09161 38087 ft 532 kts 76°
2026-04-25 14:34 40.11760 -66.99566 38073 ft 530 kts 74°
2026-04-25 14:34 40.13162 -66.90196 38072 ft 525 kts 71°
2026-04-25 14:35 40.14679 -66.80850 38082 ft 526 kts 71°
2026-04-25 14:35 40.16176 -66.71470 38077 ft 527 kts 71°
2026-04-25 14:36 40.17634 -66.62123 38068 ft 528 kts 71°
2026-04-25 14:36 40.19084 -66.52707 38083 ft 529 kts 72°
2026-04-25 14:37 40.20528 -66.43273 38070 ft 529 kts 72°
2026-04-25 14:37 40.21967 -66.33826 38060 ft 528 kts 72°
2026-04-25 14:38 40.23398 -66.24390 38089 ft 528 kts 72°
2026-04-25 14:38 40.24822 -66.14953 38056 ft 528 kts 72°
2026-04-25 14:39 40.26238 -66.05510 38052 ft 528 kts 72°
2026-04-25 14:39 40.27645 -65.96071 38048 ft 528 kts 72°
2026-04-25 14:40 40.29045 -65.86621 38052 ft 529 kts 72°
2026-04-25 14:40 40.30430 -65.77224 38041 ft 529 kts 73°
2026-04-25 14:41 40.31816 -65.67755 38035 ft 529 kts 73°
2026-04-25 14:41 40.33198 -65.58262 38043 ft 530 kts 73°
2026-04-25 14:42 40.34342 -65.50362 38060 ft 530 kts 73°
2026-04-25 14:42 40.35937 -65.39267 38025 ft 529 kts 73°
2026-04-25 14:43 40.37287 -65.29810 38015 ft 527 kts 73°
2026-04-25 14:43 40.38620 -65.20432 38015 ft 526 kts 74°
2026-04-25 14:44 40.39952 -65.11002 38016 ft 525 kts 74°
2026-04-25 14:44 40.41275 -65.01576 38014 ft 525 kts 74°
2026-04-25 14:45 40.42590 -64.92148 38023 ft 525 kts 74°
2026-04-25 14:45 40.43899 -64.82703 38006 ft 524 kts 74°
2026-04-25 14:46 40.45187 -64.73347 38001 ft 523 kts 74°
2026-04-25 14:46 40.46473 -64.63950 38005 ft 523 kts 74°
2026-04-25 14:47 40.47538 -64.56126 38002 ft 522 kts 74°
2026-04-25 14:47 40.49025 -64.45134 37991 ft 522 kts 74°
2026-04-25 14:48 40.50287 -64.35737 38009 ft 522 kts 75°
2026-04-25 14:48 40.51541 -64.26334 37980 ft 522 kts 75°
2026-04-25 14:49 40.52779 -64.16995 37991 ft 522 kts 75°
2026-04-25 14:49 40.54017 -64.07591 37971 ft 522 kts 75°
2026-04-25 14:50 40.55249 -63.98176 37974 ft 522 kts 75°
2026-04-25 14:50 40.56475 -63.88748 37993 ft 523 kts 76°
2026-04-25 14:51 40.57693 -63.79314 37970 ft 522 kts 76°
2026-04-25 14:51 40.58892 -63.69958 37964 ft 521 kts 76°
2026-04-25 14:52 40.60090 -63.60556 37949 ft 520 kts 76°
2026-04-25 14:52 40.61079 -63.52746 37947 ft 520 kts 76°
2026-04-25 14:53 40.62460 -63.41769 37960 ft 519 kts 76°
2026-04-25 14:53 40.63632 -63.32382 37948 ft 520 kts 76°
2026-04-25 14:54 40.64797 -63.22983 37934 ft 519 kts 76°
2026-04-25 14:54 40.65947 -63.13648 37927 ft 519 kts 76°
2026-04-25 14:55 40.67096 -63.04251 37911 ft 519 kts 77°
2026-04-25 14:55 40.68238 -62.94849 37922 ft 519 kts 77°
2026-04-25 14:56 40.69371 -62.85448 37915 ft 520 kts 77°
2026-04-25 14:56 40.70500 -62.76026 37912 ft 520 kts 77°
2026-04-25 14:57 40.71621 -62.66590 37903 ft 520 kts 77°
2026-04-25 14:57 40.72727 -62.57220 37898 ft 520 kts 77°
2026-04-25 14:58 40.73832 -62.47789 37904 ft 520 kts 77°
2026-04-25 14:58 40.74929 -62.38361 37888 ft 521 kts 77°
2026-04-25 14:59 40.76020 -62.28912 37903 ft 520 kts 77°
2026-04-25 14:59 40.77103 -62.19466 37892 ft 520 kts 78°
2026-04-25 15:00 40.78177 -62.10024 37876 ft 520 kts 78°
2026-04-25 15:00 40.79235 -62.00655 37871 ft 520 kts 78°
2026-04-25 15:01 40.80292 -61.91222 37888 ft 520 kts 78°
2026-04-25 15:01 40.81343 -61.81774 37870 ft 520 kts 78°
2026-04-25 15:02 40.82387 -61.72319 37875 ft 520 kts 78°
2026-04-25 15:02 40.83422 -61.62863 37864 ft 520 kts 78°
2026-04-25 15:03 40.84448 -61.53415 37863 ft 519 kts 78°
2026-04-25 15:03 40.85466 -61.43974 37857 ft 519 kts 78°
2026-04-25 15:04 40.86476 -61.34534 37858 ft 519 kts 78°
2026-04-25 15:04 40.87479 -61.25084 37871 ft 519 kts 79°
2026-04-25 15:05 40.88474 -61.15634 37850 ft 519 kts 79°
2026-04-25 15:06 40.89946 -61.01514 37850 ft 519 kts 79°
2026-04-25 15:06 40.90921 -60.92064 37841 ft 519 kts 79°
2026-04-25 15:07 40.91888 -60.82612 37837 ft 519 kts 79°
2026-04-25 15:07 40.92849 -60.73139 37843 ft 520 kts 79°
2026-04-25 15:08 40.93803 -60.63661 37833 ft 520 kts 79°
2026-04-25 15:08 40.94751 -60.54154 37830 ft 521 kts 79°
2026-04-25 15:09 40.95691 -60.44652 37826 ft 521 kts 80°
2026-04-25 15:09 40.97089 -60.30372 37815 ft 522 kts 80°
2026-04-25 15:10 40.98007 -60.20885 37827 ft 522 kts 80°
2026-04-25 15:11 40.99375 -60.06595 37812 ft 521 kts 80°
2026-04-25 15:11 41.00368 -59.97083 37811 ft 519 kts 77°
2026-04-25 15:12 41.02411 -59.82987 37809 ft 519 kts 76°
2026-04-25 15:12 41.03333 -59.76768 37820 ft 520 kts 76°
2026-04-25 15:13 41.05823 -59.59462 37795 ft 520 kts 77°
2026-04-25 15:14 41.07144 -59.50088 37793 ft 521 kts 77°
2026-04-25 15:14 41.08466 -59.40651 37793 ft 521 kts 77°
2026-04-25 15:15 41.09782 -59.31208 37793 ft 521 kts 77°
2026-04-25 15:15 41.10872 -59.23348 37784 ft 521 kts 77°
2026-04-25 15:16 41.12178 -59.13875 37772 ft 521 kts 77°
2026-04-25 15:16 41.14122 -58.99661 37767 ft 522 kts 77°
2026-04-25 15:17 41.16049 -58.85437 37773 ft 522 kts 77°
2026-04-25 15:18 41.17326 -58.75930 37759 ft 523 kts 77°
2026-04-25 15:18 41.19227 -58.61671 37755 ft 523 kts 78°
2026-04-25 15:19 41.20274 -58.53755 37753 ft 524 kts 78°
2026-04-25 15:19 41.21739 -58.42602 37755 ft 524 kts 78°
2026-04-25 15:20 41.22984 -58.33051 37741 ft 525 kts 78°
2026-04-25 15:20 41.24223 -58.23490 37737 ft 525 kts 78°
2026-04-25 15:21 41.25453 -58.13928 37739 ft 525 kts 78°
2026-04-25 15:21 41.26677 -58.04355 37734 ft 526 kts 78°
2026-04-25 15:22 41.27888 -57.94813 37738 ft 526 kts 78°
2026-04-25 15:22 41.29098 -57.85211 37728 ft 526 kts 78°
2026-04-25 15:23 41.30301 -57.75602 37726 ft 526 kts 78°
2026-04-25 15:23 41.31495 -57.65994 37723 ft 526 kts 79°
2026-04-25 15:24 41.32681 -57.56385 37737 ft 526 kts 79°
2026-04-25 15:24 41.33661 -57.48389 37717 ft 526 kts 79°
2026-04-25 15:25 41.35030 -57.37146 37710 ft 526 kts 79°
2026-04-25 15:25 41.36192 -57.27521 37704 ft 526 kts 79°
2026-04-25 15:26 41.37339 -57.17958 37703 ft 527 kts 79°
2026-04-25 15:26 41.38489 -57.08303 37709 ft 528 kts 79°
2026-04-25 15:27 41.39631 -56.98638 37697 ft 529 kts 79°
2026-04-25 15:28 41.41330 -56.84121 37678 ft 528 kts 79°
2026-04-25 15:28 41.42453 -56.74435 37678 ft 529 kts 80°
2026-04-25 15:29 41.43570 -56.64731 37692 ft 530 kts 80°
2026-04-25 15:29 41.44679 -56.55022 37668 ft 530 kts 80°
2026-04-25 15:30 41.45774 -56.45360 37664 ft 530 kts 80°
2026-04-25 15:30 41.46866 -56.35643 37662 ft 530 kts 80°
2026-04-25 15:31 41.47952 -56.25916 37668 ft 530 kts 80°
2026-04-25 15:31 41.49030 -56.16176 37663 ft 531 kts 81°
2026-04-25 15:32 41.50104 -56.06396 37656 ft 532 kts 81°
2026-04-25 15:32 41.51168 -55.96619 37654 ft 532 kts 81°
2026-04-25 15:33 41.52744 -55.82012 37636 ft 533 kts 81°
2026-04-25 15:33 41.53789 -55.72219 37647 ft 533 kts 81°
2026-04-25 15:34 41.54827 -55.62409 37643 ft 533 kts 81°
2026-04-25 15:34 41.55682 -55.54264 37625 ft 533 kts 81°
2026-04-25 15:35 41.57383 -55.37899 37615 ft 533 kts 81°
2026-04-25 15:36 41.58894 -55.23168 37635 ft 534 kts 81°
2026-04-25 15:36 41.59893 -55.13320 37618 ft 535 kts 82°
2026-04-25 15:37 41.60879 -55.03512 37617 ft 536 kts 82°
2026-04-25 15:37 41.61862 -54.93643 37613 ft 536 kts 82°
2026-04-25 15:38 41.62839 -54.83755 37616 ft 537 kts 82°
2026-04-25 15:38 41.63808 -54.73859 37610 ft 537 kts 82°
2026-04-25 15:39 41.64768 -54.63958 37604 ft 537 kts 82°
2026-04-25 15:39 41.65719 -54.54057 37603 ft 537 kts 82°
2026-04-25 15:40 41.66345 -54.47495 37598 ft 537 kts 82°
2026-04-25 15:40 41.67597 -54.34245 37607 ft 537 kts 82°
2026-04-25 15:41 41.68524 -54.24330 37595 ft 537 kts 82°
2026-04-25 15:41 41.69443 -54.14407 37598 ft 537 kts 82°
2026-04-25 15:42 41.70347 -54.04543 37593 ft 538 kts 82°
2026-04-25 15:42 41.71250 -53.94598 37583 ft 538 kts 83°
2026-04-25 15:43 41.72145 -53.84641 37587 ft 539 kts 83°
2026-04-25 15:43 41.73033 -53.74666 37586 ft 539 kts 83°
2026-04-25 15:44 41.73913 -53.64681 37585 ft 540 kts 83°
2026-04-25 15:44 41.74785 -53.54692 37575 ft 540 kts 83°
2026-04-25 15:45 41.75648 -53.44694 37589 ft 540 kts 83°
2026-04-25 15:45 41.76215 -53.38070 37586 ft 540 kts 83°
2026-04-25 15:46 41.77342 -53.24764 37573 ft 540 kts 83°
2026-04-25 15:46 41.78180 -53.14754 37574 ft 540 kts 83°
2026-04-25 15:47 41.79009 -53.04745 37571 ft 540 kts 83°
2026-04-25 15:47 41.79828 -52.94742 37575 ft 540 kts 84°
2026-04-25 15:48 41.80638 -52.84748 37568 ft 540 kts 84°
2026-04-25 15:48 41.81440 -52.74743 37565 ft 539 kts 84°
2026-04-25 15:49 41.82226 -52.64820 37566 ft 539 kts 84°
2026-04-25 15:49 41.83010 -52.54821 37562 ft 539 kts 84°
2026-04-25 15:50 41.83785 -52.44821 37552 ft 539 kts 84°
2026-04-25 15:50 41.84552 -52.34810 37562 ft 540 kts 84°
2026-04-25 15:51 41.85060 -52.28106 37563 ft 540 kts 84°
2026-04-25 15:51 41.86061 -52.14754 37559 ft 541 kts 84°
2026-04-25 15:52 41.86803 -52.04716 37571 ft 541 kts 84°
2026-04-25 15:52 41.87533 -51.94730 37552 ft 541 kts 85°
2026-04-25 15:53 41.88258 -51.84677 37558 ft 542 kts 85°
2026-04-25 15:53 41.88976 -51.74602 37554 ft 542 kts 85°
2026-04-25 15:54 41.89686 -51.64513 37552 ft 542 kts 85°
2026-04-25 15:54 41.90386 -51.54437 37551 ft 542 kts 85°
2026-04-25 15:55 41.91079 -51.44347 37542 ft 543 kts 85°
2026-04-25 15:55 41.91763 -51.34242 37554 ft 543 kts 86°
2026-04-25 15:56 41.92439 -51.24131 37552 ft 544 kts 86°
2026-04-25 15:56 41.93107 -51.13996 37555 ft 544 kts 86°
2026-04-25 15:57 41.93761 -51.03938 37552 ft 545 kts 86°
2026-04-25 15:57 41.94412 -50.93792 37542 ft 544 kts 86°
2026-04-25 15:58 41.95053 -50.83653 37551 ft 545 kts 86°
2026-04-25 15:58 41.95686 -50.73506 37546 ft 545 kts 86°
2026-04-25 15:59 41.96311 -50.63344 37557 ft 545 kts 86°
2026-04-25 15:59 41.96926 -50.53195 37533 ft 545 kts 87°
2026-04-25 16:00 41.97329 -50.46463 37539 ft 545 kts 87°
2026-04-25 16:00 41.98125 -50.32951 37549 ft 545 kts 87°
2026-04-25 16:01 41.98618 -50.24436 37553 ft 545 kts 87°
2026-04-25 16:01 41.99196 -50.14329 37551 ft 545 kts 88°
2026-04-25 16:02 41.99769 -50.04174 37548 ft 545 kts 88°
2026-04-25 16:02 42.00744 -49.94063 37548 ft 546 kts 81°
2026-04-25 16:03 42.02233 -49.84031 37548 ft 547 kts 80°
2026-04-25 16:03 42.03740 -49.73989 37564 ft 547 kts 80°
2026-04-25 16:04 42.05202 -49.63915 37559 ft 548 kts 81°
2026-04-25 16:04 42.06620 -49.53906 37549 ft 548 kts 81°
2026-04-25 16:05 42.08036 -49.43818 37530 ft 548 kts 81°
2026-04-25 16:06 42.10149 -49.28670 37560 ft 550 kts 81°
2026-04-25 16:06 42.11552 -49.18539 37557 ft 551 kts 82°
2026-04-25 16:07 42.12949 -49.08389 37556 ft 552 kts 82°
2026-04-25 16:07 42.14339 -48.98217 37559 ft 552 kts 82°
2026-04-25 16:08 42.15720 -48.88041 37562 ft 552 kts 82°
2026-04-25 16:08 42.17092 -48.77861 37553 ft 552 kts 82°
2026-04-25 16:09 42.18456 -48.67664 37566 ft 553 kts 82°
2026-04-25 16:09 42.19813 -48.57448 37564 ft 554 kts 82°
2026-04-25 16:10 42.21153 -48.47286 37570 ft 554 kts 82°
2026-04-25 16:10 42.22495 -48.37042 37563 ft 554 kts 83°
2026-04-25 16:11 42.23827 -48.26803 37567 ft 554 kts 83°
2026-04-25 16:11 42.25149 -48.16563 37558 ft 554 kts 83°
2026-04-25 16:12 42.26464 -48.06294 37569 ft 556 kts 83°
2026-04-25 16:12 42.27777 -47.95974 37572 ft 559 kts 83°
2026-04-25 16:13 42.29084 -47.85616 37564 ft 560 kts 83°
2026-04-25 16:13 42.30385 -47.75233 37570 ft 560 kts 83°
2026-04-25 16:14 42.31676 -47.64857 37568 ft 560 kts 83°
2026-04-25 16:14 42.32955 -47.54492 37564 ft 558 kts 83°
2026-04-25 16:15 42.34223 -47.44137 37570 ft 557 kts 83°
2026-04-25 16:15 42.35470 -47.33869 37570 ft 557 kts 84°
2026-04-25 16:16 42.36716 -47.23532 37576 ft 556 kts 84°
2026-04-25 16:16 42.37951 -47.13204 37570 ft 556 kts 84°
2026-04-25 16:17 42.39177 -47.02873 37550 ft 556 kts 84°
2026-04-25 16:17 42.40395 -46.92530 37572 ft 557 kts 84°
2026-04-25 16:18 42.41604 -46.82170 37583 ft 558 kts 84°
2026-04-25 16:18 42.42806 -46.71794 37582 ft 558 kts 84°
2026-04-25 16:19 42.43999 -46.61412 37581 ft 558 kts 84°
2026-04-25 16:19 42.45183 -46.51025 37584 ft 558 kts 84°
2026-04-25 16:20 42.46937 -46.35468 37574 ft 556 kts 85°
2026-04-25 16:21 42.48667 -46.19925 37583 ft 556 kts 85°
2026-04-25 16:21 42.49809 -46.09549 37588 ft 557 kts 85°
2026-04-25 16:22 42.50936 -45.99229 37593 ft 557 kts 85°
2026-04-25 16:22 42.52062 -45.88836 37590 ft 557 kts 85°
2026-04-25 16:23 42.53179 -45.78428 37562 ft 557 kts 85°
2026-04-25 16:23 42.54287 -45.68012 37599 ft 558 kts 86°
2026-04-25 16:24 42.55387 -45.57583 37596 ft 559 kts 86°
2026-04-25 16:24 42.56478 -45.47140 37599 ft 559 kts 86°
2026-04-25 16:25 42.57561 -45.36687 37598 ft 559 kts 86°
2026-04-25 16:25 42.58635 -45.26224 37595 ft 559 kts 86°
2026-04-25 16:26 42.59699 -45.15762 37568 ft 559 kts 86°
2026-04-25 16:26 42.60752 -45.05308 37608 ft 559 kts 86°
2026-04-25 16:27 42.61794 -44.94856 37610 ft 559 kts 86°
2026-04-25 16:27 42.62829 -44.84381 37606 ft 559 kts 86°
2026-04-25 16:28 42.63847 -44.73982 37607 ft 559 kts 86°
2026-04-25 16:28 42.64864 -44.63498 37607 ft 559 kts 86°
2026-04-25 16:29 42.65870 -44.53023 37575 ft 559 kts 87°
2026-04-25 16:29 42.66867 -44.42544 37608 ft 558 kts 87°
2026-04-25 16:30 42.67851 -44.32086 37613 ft 557 kts 87°
2026-04-25 16:30 42.68826 -44.21624 37616 ft 557 kts 87°
2026-04-25 16:31 42.69789 -44.11180 37621 ft 557 kts 87°
2026-04-25 16:31 42.70737 -44.00807 37616 ft 556 kts 87°
2026-04-25 16:32 42.71681 -43.90363 37602 ft 555 kts 87°
2026-04-25 16:32 42.72613 -43.79950 37619 ft 554 kts 87°
2026-04-25 16:33 42.73534 -43.69538 37625 ft 554 kts 88°
2026-04-25 16:33 42.74446 -43.59122 37607 ft 554 kts 88°
2026-04-25 16:34 42.75348 -43.48720 37622 ft 553 kts 88°
2026-04-25 16:34 42.76238 -43.38340 37623 ft 552 kts 88°
2026-04-25 16:35 42.77117 -43.27968 37593 ft 551 kts 88°
2026-04-25 16:35 42.77981 -43.17677 37623 ft 550 kts 88°
2026-04-25 16:36 42.78840 -43.07322 37621 ft 550 kts 88°
2026-04-25 16:36 42.79688 -42.96975 37624 ft 550 kts 88°
2026-04-25 16:37 42.80528 -42.86621 37623 ft 550 kts 88°
2026-04-25 16:37 42.81359 -42.76254 37606 ft 550 kts 88°
2026-04-25 16:38 42.82181 -42.65889 37578 ft 550 kts 88°
2026-04-25 16:38 42.82994 -42.55517 37629 ft 549 kts 88°
2026-04-25 16:39 42.83788 -42.45250 37628 ft 548 kts 88°
2026-04-25 16:39 42.84579 -42.34914 37621 ft 548 kts 89°
2026-04-25 16:40 42.85359 -42.24599 37636 ft 547 kts 89°
2026-04-25 16:40 42.86129 -42.14294 37631 ft 546 kts 89°
2026-04-25 16:41 42.86887 -42.04018 37622 ft 545 kts 89°
2026-04-25 16:41 42.88005 -41.88618 37633 ft 542 kts 89°
2026-04-25 16:42 42.88736 -41.78391 37638 ft 541 kts 89°
2026-04-25 16:42 42.89454 -41.68225 37636 ft 541 kts 89°
2026-04-25 16:43 42.90165 -41.58007 37641 ft 540 kts 89°
2026-04-25 16:43 42.90867 -41.47799 37641 ft 540 kts 89°
2026-04-25 16:44 42.91559 -41.37610 37648 ft 540 kts 89°
2026-04-25 16:44 42.92127 -41.29133 37644 ft 539 kts 89°
2026-04-25 16:45 42.92802 -41.18944 37660 ft 539 kts 90°
2026-04-25 16:45 42.93574 -41.07102 37648 ft 539 kts 90°
2026-04-25 16:46 42.94124 -40.98557 37656 ft 539 kts 90°
2026-04-25 16:46 42.94663 -40.90091 37661 ft 539 kts 90°
2026-04-25 16:47 42.95405 -40.78254 37660 ft 538 kts 90°
2026-04-25 16:47 42.96033 -40.68075 37650 ft 538 kts 90°
2026-04-25 16:48 42.96652 -40.57896 37665 ft 537 kts 90°
2026-04-25 16:48 42.97262 -40.47729 37666 ft 538 kts 90°
2026-04-25 16:49 42.97862 -40.37545 37670 ft 538 kts 90°
2026-04-25 16:49 42.98455 -40.27344 37663 ft 539 kts 90°
2026-04-25 16:50 42.99040 -40.17136 37679 ft 538 kts 90°
2026-04-25 16:50 42.99614 -40.06963 37658 ft 535 kts 90°
2026-04-25 16:51 43.00163 -39.96926 37666 ft 532 kts 90°
2026-04-25 16:51 43.00540 -39.88493 37668 ft 530 kts 91°
2026-04-25 16:52 43.01003 -39.76814 37667 ft 529 kts 91°
2026-04-25 16:52 43.01401 -39.66778 37673 ft 528 kts 91°
2026-04-25 16:53 43.02001 -39.51735 37660 ft 528 kts 91°
2026-04-25 16:54 43.02393 -39.41703 37676 ft 529 kts 91°
2026-04-25 16:54 43.02777 -39.31644 37683 ft 531 kts 91°
2026-04-25 16:55 43.03150 -39.21613 37705 ft 532 kts 91°
2026-04-25 16:55 43.03517 -39.11497 37697 ft 534 kts 91°
2026-04-25 16:56 43.03877 -39.01356 37717 ft 534 kts 91°
2026-04-25 16:56 43.04228 -38.91216 37707 ft 534 kts 91°
2026-04-25 16:57 43.04570 -38.81081 37716 ft 533 kts 91°
2026-04-25 16:57 43.04902 -38.70942 37715 ft 534 kts 91°
2026-04-25 16:58 43.05225 -38.60804 37722 ft 534 kts 91°
2026-04-25 16:58 43.05540 -38.50668 37732 ft 534 kts 91°
2026-04-25 16:59 43.05845 -38.40526 37733 ft 533 kts 92°
2026-04-25 16:59 43.06142 -38.30378 37741 ft 533 kts 92°
2026-04-25 17:00 43.06427 -38.20318 37751 ft 532 kts 91°
2026-04-25 17:00 43.06705 -38.10201 37759 ft 533 kts 91°
2026-04-25 17:01 43.06974 -38.00079 37776 ft 532 kts 91°
2026-04-25 17:01 43.07235 -37.89947 37769 ft 532 kts 91°
2026-04-25 17:02 43.07486 -37.79838 37773 ft 532 kts 92°
2026-04-25 17:02 43.07728 -37.69729 37777 ft 532 kts 92°
2026-04-25 17:03 43.07961 -37.59625 37782 ft 530 kts 92°
2026-04-25 17:03 43.08184 -37.49556 37791 ft 529 kts 92°
2026-04-25 17:04 43.08398 -37.39508 37796 ft 528 kts 92°
2026-04-25 17:04 43.08604 -37.29457 37799 ft 528 kts 92°
2026-04-25 17:05 43.08800 -37.19422 37800 ft 527 kts 92°
2026-04-25 17:05 43.09076 -37.04462 37811 ft 527 kts 92°
2026-04-25 17:06 43.09249 -36.94452 37824 ft 526 kts 92°
2026-04-25 17:06 43.09415 -36.84429 37830 ft 527 kts 92°
2026-04-25 17:07 43.09571 -36.74396 37825 ft 528 kts 92°
2026-04-25 17:07 43.09719 -36.64339 37851 ft 529 kts 92°
2026-04-25 17:08 43.09859 -36.54253 37833 ft 530 kts 93°
2026-04-25 17:08 43.09990 -36.44163 37856 ft 531 kts 93°
2026-04-25 17:09 43.10112 -36.34061 37840 ft 531 kts 92°
2026-04-25 17:09 43.10226 -36.23946 37879 ft 532 kts 92°
2026-04-25 17:10 43.10331 -36.13824 37874 ft 532 kts 92°
2026-04-25 17:10 43.10427 -36.03689 37897 ft 532 kts 92°
2026-04-25 17:11 43.10514 -35.93558 37896 ft 532 kts 93°
2026-04-25 17:11 43.10592 -35.83424 37890 ft 531 kts 93°
2026-04-25 17:12 43.10662 -35.73326 37882 ft 530 kts 92°
2026-04-25 17:12 43.10722 -35.63239 37900 ft 529 kts 92°
2026-04-25 17:13 43.10757 -35.56552 37904 ft 529 kts 93°
2026-04-25 17:13 43.10814 -35.43144 37903 ft 529 kts 93°
2026-04-25 17:14 43.10847 -35.33056 37916 ft 530 kts 93°
2026-04-25 17:14 43.10872 -35.22969 37922 ft 530 kts 93°
2026-04-25 17:15 43.10888 -35.12868 37925 ft 531 kts 93°
2026-04-25 17:15 43.10895 -35.02768 37936 ft 531 kts 93°
2026-04-25 17:16 43.10892 -34.92639 37935 ft 532 kts 93°
2026-04-25 17:16 43.10882 -34.82563 37943 ft 533 kts 93°
2026-04-25 17:17 43.10862 -34.72406 37945 ft 533 kts 93°
2026-04-25 17:17 43.10833 -34.62254 37951 ft 533 kts 93°
2026-04-25 17:18 43.10795 -34.52093 37930 ft 533 kts 93°
2026-04-25 17:18 43.10749 -34.41947 37965 ft 533 kts 93°
2026-04-25 17:19 43.10693 -34.31805 37964 ft 533 kts 93°
2026-04-25 17:19 43.10628 -34.21665 37968 ft 533 kts 93°
2026-04-25 17:20 43.10554 -34.11516 37973 ft 533 kts 93°
2026-04-25 17:20 43.10472 -34.01446 37979 ft 533 kts 93°
2026-04-25 17:21 43.10381 -33.91298 37955 ft 533 kts 93°
2026-04-25 17:21 43.10280 -33.81159 37999 ft 532 kts 93°
2026-04-25 17:22 43.10208 -33.74379 37987 ft 532 kts 93°
2026-04-25 17:22 43.10053 -33.60897 38003 ft 532 kts 93°
2026-04-25 17:23 43.09926 -33.50768 37996 ft 532 kts 93°
2026-04-25 17:23 43.09790 -33.40641 38005 ft 532 kts 93°
2026-04-25 17:24 43.09645 -33.30507 37998 ft 532 kts 94°
2026-04-25 17:24 43.09491 -33.20453 38009 ft 532 kts 93°
2026-04-25 17:25 43.09329 -33.10331 38023 ft 532 kts 93°
2026-04-25 17:25 43.09157 -33.00203 38025 ft 532 kts 93°
2026-04-25 17:26 43.08976 -32.90072 38027 ft 533 kts 93°
2026-04-25 17:26 43.08786 -32.79939 38020 ft 532 kts 93°
2026-04-25 17:27 43.08588 -32.69824 38034 ft 532 kts 93°
2026-04-25 17:27 43.08452 -32.63126 38019 ft 532 kts 93°
2026-04-25 17:28 43.08165 -32.49598 38042 ft 531 kts 93°
2026-04-25 17:28 43.07940 -32.39493 38048 ft 531 kts 93°
2026-04-25 17:29 43.07706 -32.29394 38048 ft 531 kts 93°
2026-04-25 17:29 43.07466 -32.19376 38048 ft 530 kts 93°
2026-04-25 17:30 43.07215 -32.09309 38056 ft 530 kts 93°
2026-04-25 17:30 43.06955 -31.99240 38053 ft 529 kts 93°
2026-04-25 17:31 43.06688 -31.89196 38068 ft 527 kts 93°
2026-04-25 17:31 43.06412 -31.79184 38062 ft 526 kts 93°
2026-04-25 17:32 43.06177 -31.70884 38067 ft 525 kts 93°
2026-04-25 17:32 43.05887 -31.60914 38067 ft 524 kts 93°
2026-04-25 17:33 43.05588 -31.50954 38079 ft 523 kts 93°
2026-04-25 17:33 43.05280 -31.40998 38317 ft 523 kts 93°
2026-04-25 17:34 43.05124 -31.36045 38732 ft 519 kts 93°
2026-04-25 17:34 43.04967 -31.31132 39027 ft 515 kts 93°
2026-04-25 17:34 43.04809 -31.26245 39200 ft 515 kts 93°
2026-04-25 17:34 43.04648 -31.21345 39328 ft 516 kts 93°
2026-04-25 17:35 43.04486 -31.16447 39458 ft 516 kts 93°
2026-04-25 17:35 43.04321 -31.11545 39599 ft 516 kts 93°
2026-04-25 17:35 43.04154 -31.06655 39840 ft 513 kts 93°
2026-04-25 17:35 43.03986 -31.01796 40001 ft 512 kts 93°
2026-04-25 17:36 43.03644 -30.92055 40078 ft 513 kts 94°
2026-04-25 17:36 43.03294 -30.82353 40091 ft 514 kts 94°
2026-04-25 17:37 43.02935 -30.72607 40091 ft 513 kts 93°
2026-04-25 17:37 43.02568 -30.62871 40102 ft 512 kts 94°
2026-04-25 17:38 43.02258 -30.54799 40091 ft 512 kts 94°
2026-04-25 17:38 43.01812 -30.43455 40098 ft 510 kts 94°
2026-04-25 17:39 43.01422 -30.33780 40095 ft 509 kts 94°
2026-04-25 17:39 43.01025 -30.24106 40103 ft 509 kts 94°
2026-04-25 17:40 43.00623 -30.14526 40099 ft 509 kts 94°
2026-04-25 17:40 43.00212 -30.04878 40106 ft 509 kts 94°
2026-04-25 17:41 43.00109 -29.95221 40108 ft 509 kts 87°
2026-04-25 17:41 43.00546 -29.85576 40112 ft 509 kts 86°
2026-04-25 17:42 43.01004 -29.75916 40109 ft 510 kts 86°
2026-04-25 17:42 43.01424 -29.66250 40104 ft 509 kts 87°
2026-04-25 17:43 43.01815 -29.56581 40111 ft 509 kts 87°
2026-04-25 17:43 43.02193 -29.46904 40109 ft 509 kts 87°
2026-04-25 17:44 43.02563 -29.37254 40103 ft 508 kts 87°
2026-04-25 17:44 43.02924 -29.27672 40108 ft 508 kts 87°
2026-04-25 17:45 43.03223 -29.19592 40111 ft 507 kts 87°
2026-04-25 17:45 43.03627 -29.08391 40113 ft 507 kts 87°
2026-04-25 17:46 43.03966 -28.98756 40112 ft 508 kts 87°
2026-04-25 17:46 43.04298 -28.89108 40112 ft 508 kts 88°
2026-04-25 17:47 43.04621 -28.79455 40112 ft 509 kts 88°
2026-04-25 17:47 43.04937 -28.69789 40114 ft 509 kts 88°
2026-04-25 17:48 43.05394 -28.55333 40115 ft 509 kts 88°
2026-04-25 17:49 43.05690 -28.45647 40118 ft 510 kts 88°
2026-04-25 17:49 43.05978 -28.35944 40116 ft 510 kts 88°
2026-04-25 17:50 43.06258 -28.26253 40118 ft 510 kts 88°
2026-04-25 17:50 43.06529 -28.16550 40114 ft 510 kts 88°
2026-04-25 17:51 43.06793 -28.06849 40118 ft 511 kts 88°
2026-04-25 17:51 43.07049 -27.97133 40115 ft 511 kts 88°
2026-04-25 17:52 43.07295 -27.87482 40113 ft 511 kts 88°
2026-04-25 17:52 43.07534 -27.77767 40119 ft 511 kts 88°
2026-04-25 17:53 43.07765 -27.68038 40116 ft 511 kts 88°
2026-04-25 17:53 43.07988 -27.58311 40123 ft 512 kts 88°
2026-04-25 17:54 43.08203 -27.48564 40118 ft 512 kts 88°
2026-04-25 17:54 43.08410 -27.38819 40126 ft 513 kts 88°
2026-04-25 17:55 43.08609 -27.29069 40115 ft 513 kts 88°
2026-04-25 17:55 43.08798 -27.19370 40118 ft 513 kts 88°
2026-04-25 17:56 43.08981 -27.09608 40122 ft 513 kts 88°
2026-04-25 17:56 43.09155 -26.99851 40128 ft 513 kts 88°
2026-04-25 17:57 43.09321 -26.90084 40124 ft 513 kts 88°
2026-04-25 17:57 43.09478 -26.80322 40124 ft 512 kts 88°
2026-04-25 17:58 43.09627 -26.70573 40125 ft 512 kts 88°
2026-04-25 17:58 43.09768 -26.60829 40133 ft 512 kts 88°
2026-04-25 17:59 43.09899 -26.51157 40127 ft 511 kts 88°
2026-04-25 17:59 43.10024 -26.41371 40128 ft 511 kts 88°
2026-04-25 18:00 43.10139 -26.31705 40130 ft 511 kts 88°
2026-04-25 18:00 43.10246 -26.21979 40129 ft 511 kts 89°
2026-04-25 18:01 43.10345 -26.12260 40133 ft 511 kts 89°
2026-04-25 18:01 43.10436 -26.02535 40120 ft 511 kts 89°
2026-04-25 18:02 43.10519 -25.92808 40126 ft 510 kts 89°
2026-04-25 18:02 43.10594 -25.83097 40130 ft 510 kts 89°
2026-04-25 18:03 43.10660 -25.73396 40126 ft 509 kts 89°
2026-04-25 18:03 43.10717 -25.63766 40128 ft 509 kts 89°
2026-04-25 18:04 43.10767 -25.54080 40122 ft 508 kts 89°
2026-04-25 18:04 43.10809 -25.44406 40126 ft 508 kts 89°
2026-04-25 18:05 43.10842 -25.34740 40122 ft 508 kts 89°
2026-04-25 18:05 43.10867 -25.25067 40120 ft 508 kts 90°
2026-04-25 18:06 43.10884 -25.15392 40118 ft 508 kts 90°
2026-04-25 18:06 43.10893 -25.05725 40121 ft 508 kts 90°
2026-04-25 18:07 43.10894 -24.96110 40117 ft 508 kts 90°
2026-04-25 18:07 43.10887 -24.86443 40114 ft 508 kts 90°
2026-04-25 18:08 43.10871 -24.76767 40117 ft 508 kts 90°
2026-04-25 18:08 43.10847 -24.67102 40112 ft 508 kts 90°
2026-04-25 18:09 43.10816 -24.57431 40114 ft 508 kts 90°
2026-04-25 18:09 43.10776 -24.47760 40108 ft 508 kts 90°
2026-04-25 18:10 43.10728 -24.38145 40109 ft 508 kts 91°
2026-04-25 18:10 43.10672 -24.28469 40104 ft 508 kts 91°
2026-04-25 18:11 43.10608 -24.18794 40110 ft 508 kts 91°
2026-04-25 18:11 43.10535 -24.09125 40103 ft 508 kts 91°
2026-04-25 18:12 43.10454 -23.99454 40103 ft 508 kts 91°
2026-04-25 18:12 43.10366 -23.89787 40101 ft 508 kts 91°
2026-04-25 18:13 43.10269 -23.80104 40101 ft 508 kts 91°
2026-04-25 18:13 43.10164 -23.70431 40100 ft 508 kts 91°
2026-04-25 18:14 43.09992 -23.55985 40098 ft 508 kts 91°
2026-04-25 18:14 43.09867 -23.46321 40091 ft 508 kts 92°
2026-04-25 18:15 43.09733 -23.36649 40092 ft 509 kts 92°
2026-04-25 18:15 43.09591 -23.26957 40094 ft 509 kts 92°
2026-04-25 18:16 43.09441 -23.17276 40098 ft 509 kts 92°
2026-04-25 18:17 43.09200 -23.02730 40095 ft 510 kts 92°
2026-04-25 18:17 43.09029 -22.93013 40091 ft 511 kts 92°
2026-04-25 18:18 43.08850 -22.83298 40095 ft 511 kts 92°
2026-04-25 18:18 43.08694 -22.75216 40093 ft 511 kts 92°
2026-04-25 18:19 43.08500 -22.65480 40077 ft 512 kts 92°
2026-04-25 18:19 43.08296 -22.55733 40093 ft 512 kts 93°
2026-04-25 18:20 43.08085 -22.45987 40093 ft 513 kts 93°
2026-04-25 18:20 43.07865 -22.36233 40095 ft 513 kts 93°
2026-04-25 18:21 43.07637 -22.26479 40095 ft 513 kts 93°
2026-04-25 18:21 43.07401 -22.16779 40092 ft 513 kts 93°
2026-04-25 18:22 43.07156 -22.07021 40095 ft 513 kts 93°
2026-04-25 18:22 43.06903 -21.97280 40095 ft 512 kts 93°
2026-04-25 18:23 43.06642 -21.87538 40094 ft 513 kts 94°
2026-04-25 18:23 43.06373 -21.77793 40091 ft 513 kts 94°
2026-04-25 18:24 43.06095 -21.68049 40099 ft 513 kts 94°
2026-04-25 18:24 43.05809 -21.58298 40101 ft 513 kts 94°
2026-04-25 18:25 43.05514 -21.48527 40099 ft 514 kts 94°
2026-04-25 18:25 43.05210 -21.38755 40106 ft 515 kts 94°
2026-04-25 18:26 43.04897 -21.28953 40107 ft 515 kts 94°
2026-04-25 18:26 43.04576 -21.19168 40106 ft 516 kts 94°
2026-04-25 18:27 43.04249 -21.09436 40100 ft 516 kts 94°
2026-04-25 18:27 43.03911 -20.99636 40105 ft 516 kts 95°
2026-04-25 18:28 43.03565 -20.89826 40100 ft 516 kts 95°
2026-04-25 18:28 43.03210 -20.80024 40107 ft 516 kts 95°
2026-04-25 18:29 43.02662 -20.65331 40110 ft 516 kts 95°
2026-04-25 18:30 43.01905 -20.45792 40109 ft 516 kts 95°
2026-04-25 18:30 43.01513 -20.35996 40109 ft 517 kts 96°
2026-04-25 18:31 43.01111 -20.26170 40116 ft 517 kts 96°
2026-04-25 18:31 43.00701 -20.16364 40113 ft 517 kts 96°
2026-04-25 18:32 43.00285 -20.06554 40113 ft 518 kts 96°
2026-04-25 18:32 43.00254 -19.96703 40118 ft 521 kts 86°
2026-04-25 18:33 43.01236 -19.86865 40132 ft 522 kts 83°
2026-04-25 18:33 43.02299 -19.77036 40122 ft 523 kts 83°
2026-04-25 18:34 43.03323 -19.67162 40122 ft 524 kts 84°
2026-04-25 18:34 43.04308 -19.57284 40127 ft 525 kts 84°
2026-04-25 18:35 43.05278 -19.47380 40126 ft 526 kts 84°
2026-04-25 18:35 43.06242 -19.37466 40123 ft 526 kts 84°
2026-04-25 18:36 43.07200 -19.27546 40129 ft 526 kts 84°
2026-04-25 18:36 43.08144 -19.17687 40129 ft 526 kts 84°
2026-04-25 18:37 43.09085 -19.07758 40133 ft 526 kts 84°
2026-04-25 18:37 43.10018 -18.97835 40134 ft 525 kts 84°
2026-04-25 18:38 43.10941 -18.87912 40135 ft 525 kts 84°
2026-04-25 18:38 43.11854 -18.78009 40139 ft 524 kts 84°
2026-04-25 18:39 43.12757 -18.68109 40135 ft 524 kts 84°
2026-04-25 18:39 43.13652 -18.58209 40133 ft 524 kts 84°
2026-04-25 18:40 43.14539 -18.48296 40139 ft 524 kts 84°
2026-04-25 18:40 43.15416 -18.38397 40139 ft 524 kts 85°
2026-04-25 18:41 43.16284 -18.28502 40147 ft 523 kts 85°
2026-04-25 18:41 43.17137 -18.18678 40146 ft 523 kts 85°
2026-04-25 18:42 43.17707 -18.12062 40148 ft 523 kts 85°
2026-04-25 18:42 43.18828 -17.98900 40152 ft 522 kts 85°
2026-04-25 18:43 43.19661 -17.89009 40129 ft 522 kts 85°
2026-04-25 18:43 43.20485 -17.79119 40156 ft 522 kts 85°
2026-04-25 18:44 43.21299 -17.69239 40162 ft 522 kts 85°
2026-04-25 18:44 43.22106 -17.59337 40164 ft 522 kts 85°
2026-04-25 18:45 43.22899 -17.49507 40163 ft 522 kts 86°
2026-04-25 18:45 43.23689 -17.39599 40157 ft 522 kts 86°
2026-04-25 18:46 43.24470 -17.29697 40165 ft 522 kts 86°
2026-04-25 18:46 43.25242 -17.19795 40171 ft 522 kts 86°
2026-04-25 18:47 43.26006 -17.09894 40171 ft 522 kts 86°
2026-04-25 18:47 43.26761 -16.99988 40172 ft 522 kts 86°
2026-04-25 18:48 43.27508 -16.90079 40180 ft 521 kts 86°
2026-04-25 18:48 43.28241 -16.80237 40179 ft 522 kts 86°
2026-04-25 18:49 43.28970 -16.70335 40182 ft 522 kts 86°
2026-04-25 18:49 43.29691 -16.60406 40183 ft 521 kts 86°
2026-04-25 18:50 43.30403 -16.50502 40186 ft 521 kts 86°
2026-04-25 18:50 43.31106 -16.40593 40191 ft 522 kts 86°
2026-04-25 18:51 43.31568 -16.34016 40187 ft 522 kts 86°
2026-04-25 18:51 43.32483 -16.20814 40194 ft 521 kts 86°
2026-04-25 18:52 43.33161 -16.10897 40195 ft 521 kts 86°
2026-04-25 18:52 43.33829 -16.00990 40196 ft 521 kts 86°
2026-04-25 18:53 43.34489 -15.91076 40199 ft 521 kts 86°
2026-04-25 18:53 43.35140 -15.81173 40205 ft 520 kts 86°
2026-04-25 18:54 43.36100 -15.66300 40207 ft 520 kts 86°
2026-04-25 18:55 43.36725 -15.56457 40206 ft 520 kts 86°
2026-04-25 18:55 43.37345 -15.46566 40208 ft 519 kts 86°
2026-04-25 18:56 43.37955 -15.36680 40209 ft 519 kts 86°
2026-04-25 18:56 43.38557 -15.26802 40209 ft 518 kts 86°
2026-04-25 18:57 43.39149 -15.16921 40211 ft 518 kts 86°
2026-04-25 18:57 43.39731 -15.07086 40213 ft 519 kts 86°
2026-04-25 18:58 43.40307 -14.97194 40213 ft 519 kts 87°
2026-04-25 18:58 43.41156 -14.82355 40211 ft 518 kts 86°
2026-04-25 18:59 43.42255 -14.62608 40217 ft 517 kts 87°
2026-04-25 19:00 43.43055 -14.47814 40222 ft 517 kts 87°
2026-04-25 19:01 43.43836 -14.33032 40221 ft 516 kts 87°
2026-04-25 19:01 43.44346 -14.23177 40219 ft 516 kts 87°
2026-04-25 19:02 43.45092 -14.08448 40226 ft 516 kts 87°
2026-04-25 19:03 43.45662 -13.96947 40223 ft 516 kts 87°
2026-04-25 19:03 43.46297 -13.83826 40214 ft 515 kts 87°
2026-04-25 19:04 43.46917 -13.70714 40226 ft 515 kts 87°
2026-04-25 19:05 43.47819 -13.51039 40229 ft 514 kts 87°
2026-04-25 19:06 43.48256 -13.41224 40224 ft 513 kts 87°
2026-04-25 19:06 43.48895 -13.26528 40228 ft 511 kts 87°
2026-04-25 19:07 43.49510 -13.11936 40222 ft 510 kts 87°
2026-04-25 19:08 43.49913 -13.02177 40529 ft 509 kts 87°
2026-04-25 19:08 43.50109 -12.97306 40714 ft 509 kts 88°
2026-04-25 19:09 43.50660 -12.82694 41116 ft 509 kts 88°
2026-04-25 19:09 43.50778 -12.79470 41154 ft 509 kts 88°
2026-04-25 19:10 43.51359 -12.63314 41221 ft 506 kts 88°
2026-04-25 19:10 43.51698 -12.53639 41226 ft 505 kts 88°
2026-04-25 19:11 43.52029 -12.43971 41225 ft 504 kts 88°
2026-04-25 19:11 43.52352 -12.34299 41239 ft 504 kts 88°
2026-04-25 19:12 43.52666 -12.24644 41220 ft 505 kts 88°
2026-04-25 19:12 43.52972 -12.14976 41221 ft 505 kts 88°
2026-04-25 19:13 43.53270 -12.05300 41228 ft 505 kts 88°
2026-04-25 19:13 43.53560 -11.95627 41230 ft 505 kts 88°
2026-04-25 19:14 43.53841 -11.85991 41226 ft 505 kts 88°
2026-04-25 19:14 43.54114 -11.76316 41216 ft 505 kts 88°
2026-04-25 19:15 43.54380 -11.66637 41215 ft 505 kts 89°
2026-04-25 19:15 43.54637 -11.56957 41217 ft 505 kts 89°
2026-04-25 19:16 43.54886 -11.47276 41227 ft 505 kts 89°
2026-04-25 19:16 43.55127 -11.37596 41217 ft 505 kts 89°
2026-04-25 19:17 43.55360 -11.27916 41225 ft 505 kts 89°
2026-04-25 19:17 43.55585 -11.18248 41210 ft 505 kts 89°
2026-04-25 19:18 43.55800 -11.08632 41212 ft 504 kts 89°
2026-04-25 19:18 43.56008 -10.98970 41225 ft 504 kts 89°
2026-04-25 19:19 43.56208 -10.89310 41211 ft 504 kts 89°
2026-04-25 19:19 43.56399 -10.79659 41217 ft 503 kts 89°
2026-04-25 19:20 43.56582 -10.70008 41213 ft 503 kts 89°
2026-04-25 19:20 43.56758 -10.60369 41214 ft 503 kts 89°
2026-04-25 19:21 43.56924 -10.50724 41211 ft 503 kts 89°
2026-04-25 19:21 43.57160 -10.36269 41209 ft 502 kts 89°
2026-04-25 19:22 43.57306 -10.26643 41208 ft 502 kts 89°
2026-04-25 19:23 43.57510 -10.12210 41191 ft 501 kts 89°
2026-04-25 19:23 43.57696 -9.97792 41198 ft 501 kts 89°
2026-04-25 19:24 43.57810 -9.88247 41205 ft 501 kts 89°
2026-04-25 19:25 43.58014 -9.69024 41197 ft 501 kts 90°
2026-04-25 19:25 43.58103 -9.59415 41191 ft 502 kts 90°
2026-04-25 19:26 43.58185 -9.49781 41182 ft 502 kts 90°
2026-04-25 19:26 43.58259 -9.40156 41183 ft 502 kts 90°
2026-04-25 19:27 43.58314 -9.32141 41190 ft 502 kts 90°
2026-04-25 19:27 43.58383 -9.20872 41189 ft 502 kts 90°
2026-04-25 19:28 43.58432 -9.11292 41189 ft 502 kts 90°
2026-04-25 19:28 43.58474 -9.01638 41174 ft 502 kts 90°
2026-04-25 19:29 43.58507 -8.91991 41176 ft 503 kts 90°
2026-04-25 19:29 43.58533 -8.82343 41168 ft 503 kts 90°
2026-04-25 19:30 43.58550 -8.72675 41165 ft 503 kts 90°
2026-04-25 19:30 43.58559 -8.63025 41164 ft 503 kts 90°
2026-04-25 19:31 43.58560 -8.53387 41163 ft 502 kts 90°
2026-04-25 19:31 43.58553 -8.43821 41168 ft 501 kts 90°
2026-04-25 19:32 43.58538 -8.34206 41169 ft 501 kts 90°
2026-04-25 19:32 43.58524 -8.27782 41164 ft 501 kts 90°
2026-04-25 19:33 43.58488 -8.14977 41166 ft 502 kts 90°
2026-04-25 19:33 43.58447 -8.05337 41164 ft 502 kts 90°
2026-04-25 19:34 43.58398 -7.95761 41176 ft 503 kts 90°
2026-04-25 19:34 43.58342 -7.86105 41187 ft 503 kts 90°
2026-04-25 19:35 43.58278 -7.76466 41177 ft 503 kts 90°
2026-04-25 19:35 43.58207 -7.66820 41182 ft 502 kts 90°
2026-04-25 19:36 43.58127 -7.57180 41201 ft 502 kts 90°
2026-04-25 19:36 43.58040 -7.47562 41184 ft 501 kts 90°
2026-04-25 19:37 43.57944 -7.38029 41191 ft 500 kts 90°
2026-04-25 19:37 43.57841 -7.28447 41197 ft 499 kts 90°
2026-04-25 19:38 43.57730 -7.18869 41198 ft 498 kts 90°
2026-04-25 19:38 43.57613 -7.09331 41191 ft 496 kts 90°
2026-04-25 19:39 43.57485 -6.99829 41196 ft 495 kts 90°
2026-04-25 19:39 43.57351 -6.90355 41198 ft 494 kts 90°
2026-04-25 19:40 43.57209 -6.80894 41193 ft 493 kts 90°
2026-04-25 19:40 43.57061 -6.71455 41199 ft 492 kts 90°
2026-04-25 19:41 43.56905 -6.62027 41191 ft 492 kts 90°
2026-04-25 19:41 43.56797 -6.55779 41196 ft 492 kts 90°
2026-04-25 19:42 43.56568 -6.43158 41198 ft 492 kts 90°
2026-04-25 19:42 43.56389 -6.33714 41196 ft 493 kts 90°
2026-04-25 19:43 43.56201 -6.24266 41210 ft 493 kts 90°
2026-04-25 19:43 43.56007 -6.14865 41218 ft 493 kts 90°
2026-04-25 19:44 43.55804 -6.05401 41217 ft 494 kts 91°
2026-04-25 19:44 43.54988 -5.96006 41216 ft 495 kts 102°
2026-04-25 19:45 43.53332 -5.86783 41216 ft 495 kts 103°
2026-04-25 19:45 43.51643 -5.77566 41213 ft 496 kts 103°
2026-04-25 19:46 43.49991 -5.68403 41211 ft 496 kts 103°
2026-04-25 19:46 43.48342 -5.59175 41207 ft 496 kts 103°
2026-04-25 19:47 43.46690 -5.49940 41209 ft 496 kts 103°
2026-04-25 19:47 43.45029 -5.40717 41219 ft 496 kts 103°
2026-04-25 19:48 43.43360 -5.31499 41223 ft 496 kts 103°
2026-04-25 19:48 43.41682 -5.22280 41210 ft 497 kts 103°
2026-04-25 19:49 43.40566 -5.16175 41224 ft 497 kts 103°
2026-04-25 19:49 43.38314 -5.03912 41215 ft 497 kts 103°
2026-04-25 19:50 43.35758 -4.90092 41223 ft 497 kts 103°
2026-04-25 19:51 43.34335 -4.82440 41227 ft 497 kts 104°
2026-04-25 19:51 43.32617 -4.73248 41229 ft 496 kts 104°
2026-04-25 19:52 43.30894 -4.64077 41231 ft 495 kts 104°
2026-04-25 19:52 43.29167 -4.54920 41231 ft 496 kts 104°
2026-04-25 19:53 43.27432 -4.45766 41235 ft 495 kts 104°
2026-04-25 19:53 43.25691 -4.36626 41221 ft 495 kts 104°
2026-04-25 19:54 43.23942 -4.27489 41222 ft 495 kts 104°
2026-04-25 19:54 43.22200 -4.18428 41234 ft 495 kts 104°
2026-04-25 19:55 43.20439 -4.09313 41234 ft 495 kts 104°
2026-04-25 19:55 43.18668 -4.00189 41229 ft 495 kts 104°
2026-04-25 19:56 43.16893 -3.91084 41216 ft 495 kts 104°
2026-04-25 19:56 43.15108 -3.81973 41232 ft 494 kts 105°
2026-04-25 19:57 43.13319 -3.72885 41223 ft 494 kts 105°
2026-04-25 19:57 43.11525 -3.63809 41220 ft 494 kts 105°
2026-04-25 19:58 43.09725 -3.54743 41235 ft 493 kts 105°
2026-04-25 19:58 43.07919 -3.45697 41232 ft 493 kts 105°
2026-04-25 19:59 43.06106 -3.36649 41221 ft 493 kts 105°
2026-04-25 19:59 43.04286 -3.27610 41210 ft 493 kts 105°
2026-04-25 20:00 43.02769 -3.20104 41234 ft 493 kts 105°
2026-04-25 20:00 43.00636 -3.09604 41216 ft 493 kts 105°
2026-04-25 20:01 42.97872 -2.96071 41222 ft 494 kts 105°
2026-04-25 20:01 42.96013 -2.87024 41210 ft 495 kts 105°
2026-04-25 20:02 42.94157 -2.78025 41222 ft 495 kts 105°
2026-04-25 20:02 42.92279 -2.68963 41227 ft 496 kts 105°
2026-04-25 20:03 42.90393 -2.59904 41226 ft 496 kts 105°
2026-04-25 20:03 42.88498 -2.50839 41186 ft 496 kts 105°
2026-04-25 20:04 42.86599 -2.41798 41191 ft 496 kts 105°
2026-04-25 20:04 42.84691 -2.32749 41207 ft 496 kts 105°
2026-04-25 20:05 42.82787 -2.23759 41193 ft 497 kts 106°
2026-04-25 20:05 42.80872 -2.14718 41205 ft 497 kts 104°
2026-04-25 20:06 42.79854 -2.05432 41202 ft 497 kts 91°
2026-04-25 20:06 42.80120 -1.96071 41072 ft 492 kts 84°
2026-04-25 20:07 42.80434 -1.91433 40767 ft 492 kts 84°
2026-04-25 20:07 42.80752 -1.86786 40398 ft 493 kts 84°
2026-04-25 20:07 42.81059 -1.82137 40185 ft 492 kts 84°
2026-04-25 20:07 42.81353 -1.77506 40196 ft 491 kts 84°
2026-04-25 20:08 42.81916 -1.68201 40196 ft 495 kts 84°
2026-04-25 20:08 42.82464 -1.58812 40190 ft 498 kts 84°
2026-04-25 20:09 42.83002 -1.49457 40187 ft 498 kts 85°
2026-04-25 20:09 42.83538 -1.40062 40178 ft 497 kts 85°
2026-04-25 20:10 42.84064 -1.30683 40178 ft 495 kts 85°
2026-04-25 20:10 42.84580 -1.21342 40175 ft 494 kts 85°
2026-04-25 20:11 42.85088 -1.12025 40178 ft 492 kts 86°
2026-04-25 20:11 42.85589 -1.02736 40178 ft 491 kts 86°
2026-04-25 20:12 42.86078 -0.93467 40183 ft 489 kts 86°
2026-04-25 20:12 42.86397 -0.87336 40191 ft 489 kts 86°
2026-04-25 20:13 42.87033 -0.74981 40198 ft 488 kts 86°
2026-04-25 20:13 42.88132 -0.65940 40201 ft 488 kts 73°
2026-04-25 20:14 42.90819 -0.57448 40197 ft 488 kts 60°
2026-04-25 20:14 42.94253 -0.49453 40198 ft 489 kts 59°
2026-04-25 20:15 42.97439 -0.41239 40199 ft 490 kts 68°
2026-04-25 20:15 42.99387 -0.32334 40204 ft 491 kts 78°
2026-04-25 20:16 43.00764 -0.23191 40211 ft 491 kts 79°
2026-04-25 20:16 43.02131 -0.14032 40209 ft 492 kts 78°
2026-04-25 20:17 43.03516 -0.04915 40209 ft 493 kts 78°
2026-04-25 20:17 43.04924 0.04272 40198 ft 494 kts 78°
2026-04-25 20:18 43.06332 0.13487 40201 ft 496 kts 78°
2026-04-25 20:18 43.07734 0.22727 40202 ft 497 kts 78°
2026-04-25 20:19 43.09129 0.31985 40199 ft 497 kts 78°
2026-04-25 20:19 43.10516 0.41244 40200 ft 497 kts 78°
2026-04-25 20:20 43.11896 0.50512 40195 ft 497 kts 78°
2026-04-25 20:20 43.13268 0.59777 40196 ft 497 kts 78°
2026-04-25 20:21 43.14634 0.69062 40197 ft 497 kts 78°
2026-04-25 20:21 43.15991 0.78335 40198 ft 497 kts 79°
2026-04-25 20:22 43.16886 0.84484 40202 ft 496 kts 79°
2026-04-25 20:22 43.18673 0.96833 40188 ft 496 kts 79°
2026-04-25 20:23 43.20005 1.06103 40191 ft 496 kts 79°
2026-04-25 20:23 43.21329 1.15370 40194 ft 495 kts 79°
2026-04-25 20:24 43.22648 1.24659 40191 ft 496 kts 79°
2026-04-25 20:24 43.23960 1.33958 40194 ft 497 kts 79°
2026-04-25 20:25 43.25266 1.43274 40190 ft 498 kts 79°
2026-04-25 20:25 43.26566 1.52609 40184 ft 498 kts 79°
2026-04-25 20:26 43.27859 1.61952 40180 ft 498 kts 79°
2026-04-25 20:26 43.29137 1.71236 40172 ft 498 kts 79°
2026-04-25 20:27 43.30417 1.80596 40171 ft 499 kts 79°
2026-04-25 20:27 43.31689 1.89959 40163 ft 498 kts 79°
2026-04-25 20:28 43.32953 1.99323 40159 ft 498 kts 79°
2026-04-25 20:28 43.34208 2.08679 40163 ft 498 kts 79°
2026-04-25 20:29 43.35456 2.18044 40159 ft 498 kts 79°
2026-04-25 20:29 43.36687 2.27342 40162 ft 497 kts 79°
2026-04-25 20:30 43.37917 2.36696 40158 ft 497 kts 79°
2026-04-25 20:30 43.39137 2.46040 40174 ft 497 kts 79°
2026-04-25 20:31 43.40352 2.55398 40177 ft 497 kts 79°
2026-04-25 20:31 43.41559 2.64763 40147 ft 497 kts 79°
2026-04-25 20:32 43.42762 2.74152 40156 ft 497 kts 79°
2026-04-25 20:32 43.43953 2.83525 40128 ft 497 kts 79°
2026-04-25 20:33 43.45139 2.92909 40109 ft 497 kts 79°
2026-04-25 20:33 43.45918 2.99115 40103 ft 497 kts 79°
2026-04-25 20:34 43.47475 3.11603 40090 ft 497 kts 79°
2026-04-25 20:34 43.48635 3.20969 40081 ft 496 kts 79°
2026-04-25 20:35 43.49785 3.30338 40080 ft 496 kts 79°
2026-04-25 20:35 43.50930 3.39718 40076 ft 496 kts 80°
2026-04-25 20:36 43.52064 3.49087 40080 ft 496 kts 80°
2026-04-25 20:36 43.53002 3.56877 40084 ft 495 kts 80°
2026-04-25 20:37 43.54303 3.67770 40074 ft 495 kts 80°
2026-04-25 20:37 43.55236 3.75633 40075 ft 495 kts 80°
2026-04-25 20:38 43.56336 3.84956 40075 ft 495 kts 80°
2026-04-25 20:38 43.57176 3.94377 40071 ft 497 kts 90°
2026-04-25 20:39 43.56322 4.03809 40086 ft 497 kts 105°
2026-04-25 20:39 43.54498 4.11332 40081 ft 497 kts 110°
2026-04-25 20:40 43.52114 4.21966 40073 ft 498 kts 100°
2026-04-25 20:40 43.51043 4.31377 40077 ft 496 kts 98°
2026-04-25 20:41 43.49999 4.40777 40070 ft 496 kts 98°
2026-04-25 20:41 43.48911 4.50154 40075 ft 495 kts 99°
2026-04-25 20:42 43.47795 4.59513 40076 ft 495 kts 99°
2026-04-25 20:42 43.46669 4.68857 40092 ft 494 kts 99°
2026-04-25 20:43 43.45538 4.78188 40100 ft 494 kts 99°
2026-04-25 20:43 43.44408 4.87457 40101 ft 494 kts 99°
2026-04-25 20:44 43.43266 4.96760 40104 ft 493 kts 99°
2026-04-25 20:44 43.42424 5.06112 40101 ft 493 kts 91°
2026-04-25 20:45 43.42886 5.15486 40104 ft 492 kts 82°
2026-04-25 20:45 43.43838 5.24805 40103 ft 492 kts 82°
2026-04-25 20:46 43.44773 5.34121 40102 ft 492 kts 82°
2026-04-25 20:46 43.45670 5.43471 40102 ft 492 kts 82°
2026-04-25 20:47 43.46544 5.52824 40104 ft 492 kts 82°
2026-04-25 20:47 43.47410 5.62179 40108 ft 493 kts 82°
2026-04-25 20:48 43.48270 5.71539 40101 ft 493 kts 82°
2026-04-25 20:48 43.49127 5.80904 40112 ft 493 kts 82°
2026-04-25 20:49 43.49968 5.90223 40103 ft 493 kts 82°
2026-04-25 20:49 43.50806 5.99618 40099 ft 493 kts 82°
2026-04-25 20:50 43.51637 6.09000 40100 ft 494 kts 82°
2026-04-25 20:50 43.52460 6.18386 40100 ft 493 kts 82°
2026-04-25 20:51 43.53704 6.27653 40107 ft 491 kts 74°
2026-04-25 20:51 43.55540 6.36732 40108 ft 491 kts 73°
2026-04-25 20:52 43.57074 6.44274 40106 ft 491 kts 73°
2026-04-25 20:52 43.59175 6.54905 40102 ft 491 kts 74°
2026-04-25 20:53 43.60941 6.64029 40103 ft 491 kts 74°
2026-04-25 20:53 43.62689 6.73111 40070 ft 485 kts 74°
2026-04-25 20:54 43.63549 6.77590 39692 ft 480 kts 74°
2026-04-25 20:54 43.64399 6.82022 39274 ft 474 kts 74°
2026-04-25 20:54 43.65228 6.86347 38881 ft 470 kts 74°
2026-04-25 20:54 43.66068 6.90740 38406 ft 465 kts 74°
2026-04-25 20:55 43.66878 6.94984 37966 ft 460 kts 74°
2026-04-25 20:55 43.67687 6.99236 37578 ft 455 kts 74°
2026-04-25 20:55 43.68485 7.03437 37179 ft 450 kts 74°
2026-04-25 20:55 43.69272 7.07590 36792 ft 445 kts 74°
2026-04-25 20:56 43.70061 7.11767 36398 ft 441 kts 74°
2026-04-25 20:56 43.70822 7.15799 36034 ft 437 kts 74°
2026-04-25 20:56 43.71584 7.19842 35651 ft 433 kts 74°
2026-04-25 20:56 43.72340 7.23866 35255 ft 430 kts 74°
2026-04-25 20:57 43.73088 7.27858 34872 ft 427 kts 74°
2026-04-25 20:57 43.73831 7.31826 34486 ft 425 kts 73°
2026-04-25 20:57 43.74567 7.35766 34095 ft 423 kts 73°
2026-04-25 20:57 43.75299 7.39694 33661 ft 421 kts 74°
2026-04-25 20:58 43.76027 7.43612 33235 ft 418 kts 74°
2026-04-25 20:58 43.76751 7.47513 32847 ft 414 kts 74°
2026-04-25 20:58 43.77460 7.51340 32464 ft 411 kts 74°
2026-04-25 20:58 43.78166 7.55164 32089 ft 409 kts 74°
2026-04-25 20:59 43.78859 7.58919 31709 ft 406 kts 74°
2026-04-25 20:59 43.79553 7.62690 31337 ft 404 kts 74°
2026-04-25 20:59 43.80245 7.66451 30970 ft 401 kts 74°
2026-04-25 20:59 43.80931 7.70189 30602 ft 398 kts 73°
2026-04-25 21:00 43.81885 7.73744 30229 ft 392 kts 59°
2026-04-25 21:00 43.82346 7.74841 30110 ft 390 kts 55°
2026-04-25 21:00 43.87466 7.81564 29243 ft 384 kts 35°
2026-04-25 21:01 43.89609 7.83798 28925 ft 386 kts 36°
2026-04-25 21:01 43.91737 7.86066 28613 ft 385 kts 36°
2026-04-25 21:01 43.93746 7.88483 28276 ft 383 kts 45°
2026-04-25 21:01 43.95398 7.91379 27982 ft 382 kts 55°
2026-04-25 21:02 43.96691 7.94598 27677 ft 382 kts 64°
2026-04-25 21:02 43.97723 7.97941 27378 ft 381 kts 65°
2026-04-25 21:02 43.98736 8.01335 27081 ft 380 kts 66°
2026-04-25 21:02 43.99742 8.04729 26766 ft 380 kts 66°
2026-04-25 21:03 44.00795 8.08075 26401 ft 377 kts 60°
2026-04-25 21:03 44.02319 8.11048 25876 ft 378 kts 44°
2026-04-25 21:03 44.04306 8.13373 25529 ft 370 kts 32°
2026-04-25 21:03 44.06449 8.15312 25198 ft 364 kts 31°
2026-04-25 21:04 44.08556 8.17238 24879 ft 361 kts 32°
2026-04-25 21:04 44.10642 8.19161 24572 ft 358 kts 32°
2026-04-25 21:04 44.12704 8.21071 24271 ft 355 kts 32°
2026-04-25 21:04 44.14749 8.22969 23965 ft 352 kts 32°
2026-04-25 21:05 44.16778 8.24859 23648 ft 349 kts 32°
2026-04-25 21:05 44.18790 8.26735 23297 ft 346 kts 32°
2026-04-25 21:05 44.20781 8.28594 22971 ft 343 kts 32°
2026-04-25 21:05 44.22751 8.30436 22653 ft 339 kts 32°
2026-04-25 21:06 44.24710 8.32268 22362 ft 339 kts 32°
2026-04-25 21:06 44.26668 8.34100 22063 ft 340 kts 32°
2026-04-25 21:06 44.28631 8.35941 21800 ft 341 kts 32°
2026-04-25 21:06 44.29941 8.37169 21598 ft 342 kts 32°
2026-04-25 21:07 44.32580 8.39647 21195 ft 341 kts 32°
2026-04-25 21:07 44.34510 8.41462 20898 ft 336 kts 32°
2026-04-25 21:07 44.36439 8.43277 20596 ft 332 kts 32°
2026-04-25 21:07 44.38341 8.45069 20305 ft 327 kts 32°
2026-04-25 21:08 44.40218 8.46837 20034 ft 324 kts 32°
2026-04-25 21:08 44.42143 8.48418 19615 ft 320 kts 22°
2026-04-25 21:08 44.44233 8.49465 19203 ft 318 kts 13°
2026-04-25 21:08 44.46384 8.50167 18846 ft 316 kts 11°
2026-04-25 21:09 44.50644 8.51525 18190 ft 311 kts 11°
2026-04-25 21:09 44.52750 8.52200 17783 ft 309 kts 12°
2026-04-25 21:09 44.54849 8.52875 17367 ft 308 kts 12°
2026-04-25 21:10 44.56938 8.53550 16957 ft 307 kts 12°
2026-04-25 21:10 44.59017 8.54224 16569 ft 306 kts 12°
2026-04-25 21:10 44.61059 8.54888 16189 ft 305 kts 12°
2026-04-25 21:10 44.63120 8.55559 15797 ft 303 kts 12°
2026-04-25 21:11 44.65174 8.56229 15431 ft 302 kts 12°
2026-04-25 21:11 44.67215 8.56896 15131 ft 299 kts 12°
2026-04-25 21:11 44.69241 8.57559 14829 ft 299 kts 12°
2026-04-25 21:11 44.71270 8.58224 14537 ft 300 kts 12°
2026-04-25 21:12 44.73300 8.58889 14244 ft 300 kts 13°
2026-04-25 21:12 44.75332 8.59556 13941 ft 299 kts 13°
2026-04-25 21:12 44.77362 8.60222 13620 ft 298 kts 13°
2026-04-25 21:12 44.78015 8.60436 13513 ft 298 kts 13°
2026-04-25 21:13 44.81354 8.61533 13006 ft 294 kts 13°
2026-04-25 21:13 44.83340 8.62187 12714 ft 291 kts 13°
2026-04-25 21:13 44.85315 8.62837 12426 ft 289 kts 13°
2026-04-25 21:13 44.87266 8.63479 12147 ft 287 kts 13°
2026-04-25 21:14 44.89206 8.64118 11868 ft 285 kts 13°
2026-04-25 21:14 44.91125 8.64749 11660 ft 279 kts 13°
2026-04-25 21:14 44.92977 8.65359 11584 ft 268 kts 13°
2026-04-25 21:14 44.94763 8.65950 11469 ft 259 kts 13°
2026-04-25 21:15 44.96489 8.66521 11322 ft 251 kts 13°
2026-04-25 21:15 44.98181 8.67081 11073 ft 248 kts 13°
2026-04-25 21:15 44.99861 8.67638 10780 ft 248 kts 14°
2026-04-25 21:15 45.01536 8.68193 10490 ft 247 kts 14°
2026-04-25 21:16 45.03210 8.68748 10217 ft 246 kts 14°
2026-04-25 21:16 45.04875 8.69300 9945 ft 245 kts 14°
2026-04-25 21:16 45.06514 8.69844 9653 ft 244 kts 13°
2026-04-25 21:16 45.08164 8.70390 9352 ft 243 kts 13°
2026-04-25 21:17 45.09811 8.70936 9050 ft 243 kts 13°
2026-04-25 21:17 45.11477 8.71490 8743 ft 242 kts 13°
2026-04-25 21:17 45.13093 8.72028 8455 ft 241 kts 13°
2026-04-25 21:17 45.14725 8.72572 8173 ft 241 kts 13°
2026-04-25 21:18 45.16352 8.73115 7890 ft 240 kts 13°
2026-04-25 21:18 45.17975 8.73656 7611 ft 239 kts 13°
2026-04-25 21:18 45.19587 8.74193 7344 ft 238 kts 13°
2026-04-25 21:18 45.21196 8.74730 7065 ft 237 kts 13°
2026-04-25 21:19 45.22804 8.75267 6794 ft 237 kts 13°
2026-04-25 21:19 45.24410 8.75803 6531 ft 236 kts 13°
2026-04-25 21:19 45.25999 8.76334 6295 ft 234 kts 13°
2026-04-25 21:19 45.27581 8.76863 5971 ft 235 kts 13°
2026-04-25 21:20 45.29168 8.77393 5728 ft 233 kts 13°
2026-04-25 21:20 45.29700 8.77571 5629 ft 233 kts 13°
2026-04-25 21:20 45.32325 8.78450 5136 ft 234 kts 13°
2026-04-25 21:20 45.33914 8.78982 4827 ft 236 kts 13°
2026-04-25 21:21 45.35507 8.79516 4568 ft 234 kts 13°
2026-04-25 21:21 45.37111 8.79981 4396 ft 239 kts
2026-04-25 21:21 45.38803 8.79772 4426 ft 250 kts 353°
2026-04-25 21:21 45.40581 8.79459 4447 ft 265 kts 352°
2026-04-25 21:22 45.41776 8.79192 4423 ft 261 kts 350°
2026-04-25 21:22 45.43543 8.78723 4228 ft 253 kts 349°
2026-04-25 21:22 45.45221 8.78257 3912 ft 240 kts 348°
2026-04-25 21:22 45.46821 8.77814 3596 ft 228 kts 348°
2026-04-25 21:23 45.48344 8.77394 3309 ft 217 kts 348°
2026-04-25 21:23 45.49790 8.76997 3031 ft 206 kts 348°
2026-04-25 21:23 45.51157 8.76621 2810 ft 193 kts 348°
2026-04-25 21:23 45.52445 8.76267 2519 ft 185 kts 347°
2026-04-25 21:24 45.53690 8.75922 2310 ft 178 kts 347°
2026-04-25 21:24 45.54849 8.75604 2063 ft 163 kts 347°
2026-04-25 21:24 45.55900 8.75314 1865 ft 145 kts 347°
2026-04-25 21:24 45.56879 8.75048 1661 ft 144 kts 346°
2026-04-25 21:25 45.57862 8.74779 1422 ft 143 kts 349°
2026-04-25 21:25 45.58832 8.74521 1233 ft 139 kts 346°
2026-04-25 21:25 45.59790 8.74247 1159 ft 141 kts 349°
2026-04-25 21:25 45.60748 8.73975 1017 ft 145 kts 348°
2026-04-25 21:26 45.61734 8.73705 794 ft 141 kts 349°
2026-04-25 21:26 45.62649 8.73443 749 ft 121 kts 349°
2026-04-25 21:26 45.63290 8.73263 744 ft 67 kts 349°
2026-04-25 21:26 45.63649 8.73142 751 ft 48 kts 334°
2026-04-25 21:27 45.63834 8.72888 751 ft 12 kts 303°
2026-04-25 21:27 45.63864 8.72824 752 ft 8 kts 303°
2026-04-25 21:27 45.63892 8.72759 754 ft 8 kts 301°
2026-04-25 21:27 45.63921 8.72689 752 ft 8 kts 301°
2026-04-25 21:28 45.63945 8.72615 752 ft 8 kts 286°
2026-04-25 21:28 45.63949 8.72534 753 ft 8 kts 264°
2026-04-25 21:28 45.63940 8.72452 754 ft 10 kts 260°
2026-04-25 21:28 45.63924 8.72325 754 ft 13 kts 260°
2026-04-25 21:29 45.63915 8.72198 751 ft 13 kts 266°
2026-04-25 21:29 45.63910 8.72052 747 ft 15 kts 266°
2026-04-25 21:29 45.63902 8.71955 749 ft 6 kts 261°
2026-04-25 21:29 45.63895 8.71911 753 ft 7 kts 250°
2026-04-25 21:30 45.63856 8.71848 752 ft 8 kts 212°
2026-04-25 21:30 45.63807 8.71830 753 ft 7 kts 183°
2026-04-25 21:30 45.63763 8.71837 751 ft 6 kts 171°
2026-04-25 21:30 45.63736 8.71843 754 ft 5 kts 171°
2026-04-25 21:31 45.63686 8.71853 752 ft 5 kts 171°
2026-04-25 21:31 45.63649 8.71863 752 ft 5 kts 169°
2026-04-25 21:31 45.63611 8.71874 756 ft 5 kts 168°
2026-04-25 21:31 45.63558 8.71889 751 ft 11 kts 168°
2026-04-25 21:32 45.63473 8.71914 755 ft 10 kts 168°
2026-04-25 21:32 45.63396 8.71937 753 ft 11 kts 168°
2026-04-25 21:32 45.63326 8.71926 751 ft 10 kts 221°
2026-04-25 21:32 45.63297 8.71813 756 ft 15 kts 258°
2026-04-25 21:33 45.63280 8.71721 755 ft 10 kts 245°
2026-04-25 21:33 45.63266 8.71695 752 ft 4 kts 229°
2026-04-25 21:33 45.63245 8.71674 751 ft 5 kts 211°
2026-04-25 21:33 45.63229 8.71657 752 ft 3 kts 221°
2026-04-25 21:34 45.63207 8.71621 754 ft 3 kts 233°
2026-04-25 21:34 45.63195 8.71595 753 ft 3 kts 237°
2026-04-25 21:34 45.63187 8.71577 752 ft 1 kts 237°
2026-04-25 21:34 45.63183 8.71569 752 ft 1 kts 237°
2026-04-25 21:35 45.63181 8.71563 752 ft 1 kts 237°
2026-04-25 21:35 45.63179 8.71560 757 ft 0 kts 237°